| time (UTC) | temp F | wind direction | speed knots | gust knots | rain 1hr in | rain 24hr in | rain mn in | humidity % | barometer mb |
| 20260510151545 | 71 | 336 | 5.2 | 8.7 | 0.00 | 0.00 | 0.00 | 51 | 1017.8 |
| 20260510151447 | 71 | 338 | 5.2 | 8.7 | 0.00 | 0.00 | 0.00 | 51 | 1017.8 |
| 20260510151346 | 71 | 340 | 5.2 | 8.7 | 0.00 | 0.00 | 0.00 | 49 | 1017.8 |
| 20260510151247 | 71 | 328 | 5.2 | 8.7 | 0.00 | 0.00 | 0.00 | 50 | 1017.7 |
| 20260510151137 | 71 | 0 | 5.2 | 8.7 | 0.00 | 0.00 | 0.00 | 49 | 1017.7 |
| 20260510151037 | 71 | 310 | 4.3 | 8.7 | 0.00 | 0.00 | 0.00 | 50 | 1017.7 |
| 20260510150939 | 71 | 319 | 4.3 | 8.7 | 0.00 | 0.00 | 0.00 | 50 | 1017.7 |
| 20260510150836 | 71 | 337 | 4.3 | 8.7 | 0.00 | 0.00 | 0.00 | 49 | 1017.8 |
| 20260510150738 | 71 | 345 | 4.3 | 8.7 | 0.00 | 0.00 | 0.00 | 48 | 1017.8 |
| 20260510150637 | 71 | 329 | 4.3 | 8.7 | 0.00 | 0.00 | 0.00 | 50 | 1017.8 |
| 20260510150537 | 71 | 316 | 3.5 | 7.8 | 0.00 | 0.00 | 0.00 | 52 | 1017.8 |
| 20260510150436 | 71 | 332 | 3.5 | 7.8 | 0.00 | 0.00 | 0.00 | 52 | 1017.8 |
| 20260510150338 | 71 | 333 | 3.5 | 7.8 | 0.00 | 0.00 | 0.00 | 51 | 1017.7 |
| 20260510150238 | 71 | 336 | 3.5 | 7.8 | 0.00 | 0.00 | 0.00 | 52 | 1017.8 |
| 20260510150137 | 71 | 347 | 3.5 | 7.8 | 0.00 | 0.00 | 0.00 | 50 | 1017.8 |
| 20260510150037 | 71 | 327 | 3.5 | 7.8 | 0.00 | 0.00 | 0.00 | 51 | 1017.8 |
| 20260510145937 | 71 | 338 | 3.5 | 7.8 | 0.00 | 0.00 | 0.00 | 52 | 1017.8 |
| 20260510145838 | 71 | 27 | 3.5 | 7.8 | 0.00 | 0.00 | 0.00 | 50 | 1017.8 |
| 20260510145738 | 70 | 355 | 3.5 | 7.8 | 0.00 | 0.00 | 0.00 | 51 | 1017.8 |
| 20260510145637 | 70 | 0 | 3.5 | 7.8 | 0.00 | 0.00 | 0.00 | 50 | 1017.7 |
| 20260510145537 | 70 | 305 | 3.5 | 7.8 | 0.00 | 0.00 | 0.00 | 51 | 1017.8 |
| 20260510145437 | 70 | 307 | 3.5 | 7.8 | 0.00 | 0.00 | 0.00 | 52 | 1017.7 |
| 20260510145337 | 70 | 282 | 4.3 | 7.8 | 0.00 | 0.00 | 0.00 | 53 | 1017.7 |
| 20260510145238 | 70 | 344 | 4.3 | 7.8 | 0.00 | 0.00 | 0.00 | 52 | 1017.7 |
| 20260510145136 | 70 | 311 | 4.3 | 7.8 | 0.00 | 0.00 | 0.00 | 51 | 1017.7 |
| 20260510145038 | 70 | 292 | 4.3 | 8.7 | 0.00 | 0.00 | 0.00 | 50 | 1017.8 |
| 20260510144936 | 70 | 355 | 4.3 | 8.7 | 0.00 | 0.00 | 0.00 | 51 | 1017.8 |
| 20260510144837 | 70 | 0 | 4.3 | 8.7 | 0.00 | 0.00 | 0.00 | 51 | 1017.7 |
| 20260510144738 | 70 | 24 | 4.3 | 8.7 | 0.00 | 0.00 | 0.00 | 53 | 1017.7 |
| 20260510144538 | 70 | 316 | 5.2 | 8.7 | 0.00 | 0.00 | 0.00 | 50 | 1017.7 |
| 20260510144436 | 69 | 331 | 4.3 | 8.7 | 0.00 | 0.00 | 0.00 | 53 | 1017.9 |
| 20260510144337 | 69 | 336 | 4.3 | 8.7 | 0.00 | 0.00 | 0.00 | 52 | 1017.8 |
| 20260510144238 | 69 | 344 | 4.3 | 8.7 | 0.00 | 0.00 | 0.00 | 52 | 1017.7 |
| 20260510144137 | 69 | 316 | 4.3 | 8.7 | 0.00 | 0.00 | 0.00 | 49 | 1017.6 |
| 20260510144037 | 69 | 323 | 4.3 | 7.8 | 0.00 | 0.00 | 0.00 | 51 | 1017.7 |
| 20260510143938 | 69 | 330 | 4.3 | 7.8 | 0.00 | 0.00 | 0.00 | 50 | 1017.6 |
| 20260510143833 | 69 | 301 | 4.3 | 7.8 | 0.00 | 0.00 | 0.00 | 51 | 1017.8 |
| 20260510143734 | 69 | 347 | 4.3 | 8.7 | 0.00 | 0.00 | 0.00 | 50 | 1017.7 |
| 20260510143633 | 69 | 277 | 3.5 | 8.7 | 0.00 | 0.00 | 0.00 | 51 | 1017.7 |
| 20260510143533 | 69 | 0 | 3.5 | 8.7 | 0.00 | 0.00 | 0.00 | 51 | 1017.7 |
| 20260510143433 | 69 | 348 | 4.3 | 8.7 | 0.00 | 0.00 | 0.00 | 51 | 1017.7 |
| 20260510143332 | 69 | 11 | 4.3 | 8.7 | 0.00 | 0.00 | 0.00 | 51 | 1017.7 |
| 20260510143234 | 69 | 0 | 4.3 | 8.7 | 0.00 | 0.00 | 0.00 | 51 | 1017.7 |
| 20260510143134 | 69 | 333 | 4.3 | 8.7 | 0.00 | 0.00 | 0.00 | 51 | 1017.7 |
| 20260510143033 | 69 | 5 | 4.3 | 9.6 | 0.00 | 0.00 | 0.00 | 50 | 1017.7 |
| 20260510142933 | 69 | 292 | 4.3 | 9.6 | 0.00 | 0.00 | 0.00 | 51 | 1017.7 |
| 20260510142834 | 69 | 325 | 4.3 | 9.6 | 0.00 | 0.00 | 0.00 | 50 | 1017.5 |
| 20260510142734 | 69 | 321 | 4.3 | 9.6 | 0.00 | 0.00 | 0.00 | 49 | 1017.7 |
| 20260510142633 | 69 | 308 | 4.3 | 9.6 | 0.00 | 0.00 | 0.00 | 51 | 1017.7 |
| 20260510142534 | 69 | 311 | 4.3 | 9.6 | 0.00 | 0.00 | 0.00 | 49 | 1017.7 |
| 20260510142435 | 69 | 263 | 4.3 | 9.6 | 0.00 | 0.00 | 0.00 | 53 | 1017.7 |
| 20260510142333 | 69 | 345 | 4.3 | 9.6 | 0.00 | 0.00 | 0.00 | 52 | 1017.7 |
| 20260510142233 | 69 | 327 | 4.3 | 9.6 | 0.00 | 0.00 | 0.00 | 50 | 1017.7 |
| 20260510142133 | 69 | 330 | 3.5 | 9.6 | 0.00 | 0.00 | 0.00 | 52 | 1017.6 |
| 20260510142032 | 69 | 355 | 3.5 | 7.0 | 0.00 | 0.00 | 0.00 | 51 | 1017.6 |
| 20260510141933 | 69 | 301 | 3.5 | 7.0 | 0.00 | 0.00 | 0.00 | 50 | 1017.6 |
| 20260510141833 | 69 | 0 | 3.5 | 7.0 | 0.00 | 0.00 | 0.00 | 51 | 1017.6 |
| 20260510141734 | 69 | 355 | 3.5 | 7.0 | 0.00 | 0.00 | 0.00 | 51 | 1017.6 |
| 20260510141633 | 69 | 331 | 3.5 | 7.0 | 0.00 | 0.00 | 0.00 | 50 | 1017.6 |
| 20260510141534 | 69 | 310 | 2.6 | 7.0 | 0.00 | 0.00 | 0.00 | 52 | 1017.6 |
| 20260510141433 | 69 | 318 | 2.6 | 7.0 | 0.00 | 0.00 | 0.00 | 50 | 1017.7 |
| 20260510141334 | 69 | 300 | 2.6 | 7.0 | 0.00 | 0.00 | 0.00 | 51 | 1017.6 |
| 20260510141233 | 69 | 325 | 2.6 | 7.0 | 0.00 | 0.00 | 0.00 | 52 | 1017.7 |
| 20260510141132 | 69 | 319 | 2.6 | 5.2 | 0.00 | 0.00 | 0.00 | 51 | 1017.7 |
| 20260510141032 | 69 | 313 | 2.6 | 5.2 | 0.00 | 0.00 | 0.00 | 50 | 1017.6 |
| 20260510140934 | 68 | 318 | 2.6 | 5.2 | 0.00 | 0.00 | 0.00 | 53 | 1017.7 |
| 20260510140834 | 68 | 0 | 2.6 | 5.2 | 0.00 | 0.00 | 0.00 | 53 | 1017.6 |
| 20260510140733 | 68 | 338 | 2.6 | 5.2 | 0.00 | 0.00 | 0.00 | 52 | 1017.7 |
| 20260510140634 | 68 | 314 | 2.6 | 5.2 | 0.00 | 0.00 | 0.00 | 52 | 1017.7 |
| 20260510140529 | 68 | 336 | 3.5 | 6.1 | 0.00 | 0.00 | 0.00 | 52 | 1017.6 |
| 20260510140430 | 68 | 346 | 3.5 | 6.1 | 0.00 | 0.00 | 0.00 | 51 | 1017.6 |
| 20260510140330 | 68 | 347 | 3.5 | 6.1 | 0.00 | 0.00 | 0.00 | 52 | 1017.6 |
| 20260510140230 | 68 | 340 | 3.5 | 6.1 | 0.00 | 0.00 | 0.00 | 53 | 1017.6 |
| 20260510140128 | 68 | 340 | 3.5 | 6.1 | 0.00 | 0.00 | 0.00 | 53 | 1017.7 |
| 20260510140029 | 68 | 5 | 3.5 | 6.1 | 0.00 | 0.00 | 0.00 | 56 | 1017.7 |
| 20260510135928 | 68 | 346 | 3.5 | 6.1 | 0.00 | 0.00 | 0.00 | 52 | 1017.7 |
| 20260510135829 | 67 | 0 | 3.5 | 6.1 | 0.00 | 0.00 | 0.00 | 52 | 1017.6 |
| 20260510135730 | 67 | 322 | 3.5 | 6.1 | 0.00 | 0.00 | 0.00 | 54 | 1017.7 |
| 20260510135629 | 67 | 330 | 3.5 | 7.0 | 0.00 | 0.00 | 0.00 | 51 | 1017.7 |
| 20260510135531 | 67 | 300 | 3.5 | 7.0 | 0.00 | 0.00 | 0.00 | 53 | 1017.7 |
| 20260510135429 | 67 | 328 | 3.5 | 7.0 | 0.00 | 0.00 | 0.00 | 53 | 1017.7 |
| 20260510135328 | 67 | 285 | 3.5 | 7.0 | 0.00 | 0.00 | 0.00 | 52 | 1017.7 |
| 20260510135230 | 67 | 10 | 3.5 | 7.0 | 0.00 | 0.00 | 0.00 | 54 | 1017.7 |
| 20260510135130 | 67 | 355 | 3.5 | 7.0 | 0.00 | 0.00 | 0.00 | 55 | 1017.7 |
| 20260510135030 | 67 | 5 | 3.5 | 7.0 | 0.00 | 0.00 | 0.00 | 54 | 1017.7 |
| 20260510134928 | 67 | 337 | 3.5 | 7.0 | 0.00 | 0.00 | 0.00 | 53 | 1017.7 |
| 20260510134829 | 67 | 316 | 3.5 | 7.0 | 0.00 | 0.00 | 0.00 | 53 | 1017.7 |
| 20260510134730 | 67 | 298 | 3.5 | 7.0 | 0.00 | 0.00 | 0.00 | 53 | 1017.6 |
| 20260510134629 | 67 | 323 | 3.5 | 7.0 | 0.00 | 0.00 | 0.00 | 51 | 1017.7 |
| 20260510134530 | 67 | 333 | 3.5 | 7.0 | 0.00 | 0.00 | 0.00 | 52 | 1017.7 |
| 20260510134429 | 67 | 338 | 3.5 | 6.1 | 0.00 | 0.00 | 0.00 | 52 | 1017.6 |
| 20260510134328 | 67 | 324 | 3.5 | 6.1 | 0.00 | 0.00 | 0.00 | 55 | 1017.7 |
| 20260510134229 | 67 | 342 | 3.5 | 5.2 | 0.00 | 0.00 | 0.00 | 54 | 1017.7 |
| 20260510134129 | 67 | 333 | 3.5 | 5.2 | 0.00 | 0.00 | 0.00 | 53 | 1017.7 |
| 20260510134030 | 67 | 298 | 3.5 | 5.2 | 0.00 | 0.00 | 0.00 | 57 | 1017.7 |
| 20260510133930 | 67 | 25 | 3.5 | 6.1 | 0.00 | 0.00 | 0.00 | 56 | 1017.6 |
| 20260510133830 | 67 | 5 | 3.5 | 6.1 | 0.00 | 0.00 | 0.00 | 54 | 1017.6 |
| 20260510133728 | 67 | 355 | 3.5 | 6.1 | 0.00 | 0.00 | 0.00 | 56 | 1017.6 |
| 20260510133629 | 67 | 349 | 3.5 | 6.1 | 0.00 | 0.00 | 0.00 | 60 | 1017.5 |
| 20260510133530 | 67 | 11 | 3.5 | 6.1 | 0.00 | 0.00 | 0.00 | 59 | 1017.5 |
| 20260510133429 | 67 | 338 | 2.6 | 6.1 | 0.00 | 0.00 | 0.00 | 58 | 1017.6 |
| 20260510133330 | 67 | 21 | 2.6 | 6.1 | 0.00 | 0.00 | 0.00 | 59 | 1017.5 |
| 20260510133226 | 67 | 351 | 3.5 | 6.1 | 0.00 | 0.00 | 0.00 | 56 | 1017.5 |
| 20260510133125 | 67 | 5 | 2.6 | 6.1 | 0.00 | 0.00 | 0.00 | 55 | 1017.6 |
| 20260510133026 | 67 | 20 | 2.6 | 6.1 | 0.00 | 0.00 | 0.00 | 56 | 1017.5 |
| 20260510132926 | 67 | 350 | 2.6 | 4.3 | 0.00 | 0.00 | 0.00 | 60 | 1017.5 |
| 20260510132824 | 67 | 13 | 2.6 | 4.3 | 0.00 | 0.00 | 0.00 | 60 | 1017.5 |
| 20260510132726 | 67 | 13 | 2.6 | 4.3 | 0.00 | 0.00 | 0.00 | 60 | 1017.5 |
| 20260510132524 | 66 | 13 | 3.5 | 7.0 | 0.00 | 0.00 | 0.00 | 61 | 1017.5 |
| 20260510132425 | 66 | 13 | 3.5 | 7.0 | 0.00 | 0.00 | 0.00 | 61 | 1017.5 |
| 20260510132325 | 66 | 13 | 3.5 | 7.0 | 0.00 | 0.00 | 0.00 | 62 | 1017.5 |
| 20260510132224 | 66 | 5 | 3.5 | 7.0 | 0.00 | 0.00 | 0.00 | 61 | 1017.5 |
| 20260510132125 | 66 | 23 | 3.5 | 7.0 | 0.00 | 0.00 | 0.00 | 59 | 1017.5 |
| 20260510132022 | 66 | 13 | 3.5 | 7.0 | 0.00 | 0.00 | 0.00 | 61 | 1017.5 |
| 20260510131922 | 66 | 346 | 3.5 | 7.0 | 0.00 | 0.00 | 0.00 | 61 | 1017.5 |
| 20260510131820 | 66 | 346 | 4.3 | 7.0 | 0.00 | 0.00 | 0.00 | 57 | 1017.6 |
| 20260510131720 | 66 | 350 | 4.3 | 7.0 | 0.00 | 0.00 | 0.00 | 57 | 1017.5 |
| 20260510131619 | 66 | 304 | 4.3 | 7.0 | 0.00 | 0.00 | 0.00 | 58 | 1017.4 |
| 20260510131518 | 66 | 292 | 4.3 | 7.0 | 0.00 | 0.00 | 0.00 | 57 | 1017.5 |
| 20260510131419 | 66 | 307 | 4.3 | 7.0 | 0.00 | 0.00 | 0.00 | 59 | 1017.5 |
| 20260510131318 | 66 | 298 | 4.3 | 7.0 | 0.00 | 0.00 | 0.00 | 57 | 1017.5 |
| 20260510131216 | 66 | 318 | 3.5 | 7.0 | 0.00 | 0.00 | 0.00 | 59 | 1017.4 |
| 20260510131115 | 66 | 318 | 3.5 | 7.0 | 0.00 | 0.00 | 0.00 | 58 | 1017.5 |
| 20260510131014 | 66 | 328 | 3.5 | 7.0 | 0.00 | 0.00 | 0.00 | 57 | 1017.4 |
| 20260510130916 | 66 | 355 | 3.5 | 7.0 | 0.00 | 0.00 | 0.00 | 58 | 1017.4 |
| 20260510130816 | 66 | 319 | 3.5 | 7.0 | 0.00 | 0.00 | 0.00 | 55 | 1017.4 |
| 20260510130713 | 66 | 330 | 3.5 | 5.2 | 0.00 | 0.00 | 0.00 | 56 | 1017.4 |
| 20260510130612 | 66 | 326 | 3.5 | 5.2 | 0.00 | 0.00 | 0.00 | 57 | 1017.3 |
| 20260510130514 | 66 | 321 | 3.5 | 5.2 | 0.00 | 0.00 | 0.00 | 58 | 1017.3 |
| 20260510130412 | 65 | 331 | 3.5 | 5.2 | 0.00 | 0.00 | 0.00 | 59 | 1017.4 |
| 20260510130305 | 65 | 351 | 2.6 | 4.3 | 0.00 | 0.00 | 0.00 | 59 | 1017.3 |
| 20260510130205 | 65 | 348 | 2.6 | 4.3 | 0.00 | 0.00 | 0.00 | 60 | 1017.4 |
| 20260510130106 | 65 | 344 | 2.6 | 4.3 | 0.00 | 0.00 | 0.00 | 62 | 1017.3 |
| 20260510130006 | 65 | 327 | 2.6 | 4.3 | 0.00 | 0.00 | 0.00 | 61 | 1017.2 |
| 20260510125906 | 65 | 327 | 2.6 | 4.3 | 0.00 | 0.00 | 0.00 | 60 | 1017.2 |
| 20260510125759 | 65 | 5 | 2.6 | 4.3 | 0.00 | 0.00 | 0.00 | 62 | 1017.2 |
| 20260510125700 | 65 | 5 | 2.6 | 4.3 | 0.00 | 0.00 | 0.00 | 62 | 1017.2 |
| 20260510125600 | 65 | 343 | 2.6 | 3.5 | 0.00 | 0.00 | 0.00 | 62 | 1017.3 |
| 20260510125459 | 65 | 342 | 1.7 | 3.5 | 0.00 | 0.00 | 0.00 | 64 | 1017.1 |
| 20260510125400 | 65 | 320 | 1.7 | 3.5 | 0.00 | 0.00 | 0.00 | 64 | 1017.1 |
| 20260510125258 | 65 | 298 | 1.7 | 3.5 | 0.00 | 0.00 | 0.00 | 65 | 1017.1 |
| 20260510125157 | 65 | 324 | 1.7 | 3.5 | 0.00 | 0.00 | 0.00 | 64 | 1017.1 |
| 20260510125057 | 65 | 311 | 1.7 | 3.5 | 0.00 | 0.00 | 0.00 | 64 | 1017.1 |
| 20260510124958 | 65 | 319 | 1.7 | 3.5 | 0.00 | 0.00 | 0.00 | 65 | 1017.0 |
| 20260510124857 | 65 | 312 | 1.7 | 3.5 | 0.00 | 0.00 | 0.00 | 64 | 1017.0 |
| 20260510124758 | 64 | 291 | 1.7 | 3.5 | 0.00 | 0.00 | 0.00 | 65 | 1017.2 |
| 20260510124658 | 64 | 293 | 1.7 | 3.5 | 0.00 | 0.00 | 0.00 | 64 | 1017.1 |
| 20260510124557 | 64 | 290 | 1.7 | 3.5 | 0.00 | 0.00 | 0.00 | 65 | 1017.1 |
| 20260510124457 | 64 | 304 | 1.7 | 3.5 | 0.00 | 0.00 | 0.00 | 65 | 1017.1 |
| 20260510124357 | 64 | 309 | 1.7 | 3.5 | 0.00 | 0.00 | 0.00 | 65 | 1017.1 |
| 20260510124255 | 64 | 315 | 1.7 | 3.5 | 0.00 | 0.00 | 0.00 | 67 | 1017.1 |
| 20260510124154 | 64 | 298 | 1.7 | 3.5 | 0.00 | 0.00 | 0.00 | 67 | 1017.1 |
| 20260510124052 | 64 | 326 | 1.7 | 3.5 | 0.00 | 0.00 | 0.00 | 68 | 1017.1 |
| 20260510123952 | 64 | 326 | 1.7 | 3.5 | 0.00 | 0.00 | 0.00 | 68 | 1017.1 |
| 20260510123852 | 64 | 326 | 1.7 | 3.5 | 0.00 | 0.00 | 0.00 | 69 | 1017.0 |
| 20260510123752 | 64 | 287 | 1.7 | 2.6 | 0.00 | 0.00 | 0.00 | 71 | 1017.1 |
| 20260510123652 | 64 | 317 | 1.7 | 2.6 | 0.00 | 0.00 | 0.00 | 70 | 1017.1 |
| 20260510123548 | 64 | 317 | 1.7 | 3.5 | 0.00 | 0.00 | 0.00 | 70 | 1017.1 |
| 20260510123448 | 64 | 318 | 1.7 | 4.3 | 0.00 | 0.00 | 0.00 | 70 | 1017.1 |
| 20260510123347 | 64 | 320 | 1.7 | 4.3 | 0.00 | 0.00 | 0.00 | 70 | 1017.1 |
| 20260510123248 | 64 | 314 | 1.7 | 4.3 | 0.00 | 0.00 | 0.00 | 70 | 1017.0 |
| 20260510123148 | 63 | 317 | 1.7 | 4.3 | 0.00 | 0.00 | 0.00 | 70 | 1017.0 |
| 20260510123046 | 63 | 317 | 1.7 | 4.3 | 0.00 | 0.00 | 0.00 | 71 | 1017.1 |
| 20260510122947 | 63 | 300 | 1.7 | 4.3 | 0.00 | 0.00 | 0.00 | 69 | 1017.0 |
| 20260510122845 | 63 | 300 | 1.7 | 4.3 | 0.00 | 0.00 | 0.00 | 69 | 1017.1 |
| 20260510122746 | 63 | 288 | 1.7 | 4.3 | 0.00 | 0.00 | 0.00 | 69 | 1017.1 |
| 20260510122644 | 63 | 292 | 1.7 | 4.3 | 0.00 | 0.00 | 0.00 | 70 | 1017.1 |
| 20260510122544 | 63 | 327 | 1.7 | 4.3 | 0.00 | 0.00 | 0.00 | 70 | 1017.0 |
| 20260510122443 | 63 | 321 | 1.7 | 3.5 | 0.00 | 0.00 | 0.00 | 72 | 1017.1 |
| 20260510122343 | 63 | 332 | 1.7 | 3.5 | 0.00 | 0.00 | 0.00 | 72 | 1017.0 |
| 20260510122244 | 63 | 303 | 1.7 | 3.5 | 0.00 | 0.00 | 0.00 | 72 | 1016.9 |
| 20260510122143 | 63 | 329 | 1.7 | 3.5 | 0.00 | 0.00 | 0.00 | 73 | 1016.9 |
| 20260510122044 | 63 | 329 | 1.7 | 3.5 | 0.00 | 0.00 | 0.00 | 72 | 1016.9 |
| 20260510121944 | 63 | 329 | 0.9 | 3.5 | 0.00 | 0.00 | 0.00 | 72 | 1016.9 |
| 20260510121839 | 63 | 312 | 0.9 | 3.5 | 0.00 | 0.00 | 0.00 | 71 | 1016.9 |
| 20260510121738 | 62 | 308 | 0.9 | 3.5 | 0.00 | 0.00 | 0.00 | 71 | 1016.9 |
| 20260510121638 | 62 | 308 | 0.9 | 3.5 | 0.00 | 0.00 | 0.00 | 71 | 1016.9 |
| 20260510121537 | 62 | 306 | 1.7 | 3.5 | 0.00 | 0.00 | 0.00 | 72 | 1016.9 |
| 20260510121438 | 62 | 311 | 1.7 | 3.5 | 0.00 | 0.00 | 0.00 | 72 | 1016.9 |
| 20260510121338 | 62 | 311 | 1.7 | 3.5 | 0.00 | 0.00 | 0.00 | 72 | 1016.9 |
| 20260510121235 | 62 | 312 | 0.9 | 3.5 | 0.00 | 0.00 | 0.00 | 73 | 1016.9 |
| 20260510121136 | 62 | 313 | 0.9 | 2.6 | 0.00 | 0.00 | 0.00 | 73 | 1016.9 |
| 20260510121034 | 62 | 312 | 1.7 | 2.6 | 0.00 | 0.00 | 0.00 | 73 | 1016.9 |
| 20260510120933 | 62 | 312 | 1.7 | 3.5 | 0.00 | 0.00 | 0.00 | 73 | 1016.7 |
| 20260510120832 | 62 | 312 | 1.7 | 3.5 | 0.00 | 0.00 | 0.00 | 73 | 1016.7 |
| 20260510120730 | 62 | 312 | 1.7 | 3.5 | 0.00 | 0.00 | 0.00 | 73 | 1016.7 |
| 20260510120630 | 62 | 313 | 1.7 | 6.1 | 0.00 | 0.00 | 0.00 | 72 | 1016.7 |
| 20260510120527 | 62 | 313 | 1.7 | 6.1 | 0.00 | 0.00 | 0.00 | 72 | 1016.6 |
| 20260510120425 | 62 | 312 | 1.7 | 6.1 | 0.00 | 0.00 | 0.00 | 72 | 1016.5 |
| 20260510120325 | 62 | 312 | 1.7 | 6.1 | 0.00 | 0.00 | 0.00 | 71 | 1016.5 |
| 20260510120226 | 62 | 312 | 2.6 | 6.1 | 0.00 | 0.00 | 0.00 | 72 | 1016.5 |
| 20260510120127 | 61 | 311 | 2.6 | 6.1 | 0.00 | 0.00 | 0.00 | 71 | 1016.5 |
| 20260510120026 | 61 | 313 | 2.6 | 6.1 | 0.00 | 0.00 | 0.00 | 71 | 1016.5 |
| 20260510115925 | 61 | 320 | 2.6 | 6.1 | 0.00 | 0.00 | 0.00 | 71 | 1016.5 |
| 20260510115826 | 61 | 298 | 2.6 | 6.1 | 0.00 | 0.00 | 0.00 | 71 | 1016.5 |
| 20260510115721 | 61 | 294 | 3.5 | 6.1 | 0.00 | 0.00 | 0.00 | 70 | 1016.5 |
| 20260510115622 | 61 | 317 | 3.5 | 6.1 | 0.00 | 0.00 | 0.00 | 71 | 1016.5 |
| 20260510115519 | 61 | 318 | 3.5 | 7.8 | 0.00 | 0.00 | 0.00 | 71 | 1016.5 |
| 20260510115417 | 61 | 314 | 3.5 | 7.8 | 0.00 | 0.00 | 0.00 | 70 | 1016.5 |
| 20260510115317 | 61 | 296 | 3.5 | 7.8 | 0.00 | 0.00 | 0.00 | 70 | 1016.4 |
| 20260510115216 | 61 | 324 | 3.5 | 7.8 | 0.00 | 0.00 | 0.00 | 70 | 1016.4 |
| 20260510115116 | 61 | 306 | 4.3 | 7.8 | 0.00 | 0.00 | 0.00 | 70 | 1016.4 |
| 20260510115015 | 61 | 317 | 4.3 | 7.8 | 0.00 | 0.00 | 0.00 | 69 | 1016.3 |
| 20260510114916 | 61 | 292 | 4.3 | 7.8 | 0.00 | 0.00 | 0.00 | 69 | 1016.3 |
| 20260510114816 | 61 | 282 | 4.3 | 7.8 | 0.00 | 0.00 | 0.00 | 69 | 1016.3 |
| 20260510114715 | 61 | 307 | 4.3 | 8.7 | 0.00 | 0.00 | 0.00 | 68 | 1016.2 |
| 20260510114609 | 61 | 296 | 4.3 | 8.7 | 0.00 | 0.00 | 0.00 | 69 | 1016.2 |
| 20260510114509 | 61 | 300 | 4.3 | 8.7 | 0.00 | 0.00 | 0.00 | 69 | 1016.3 |
| 20260510114410 | 61 | 295 | 4.3 | 8.7 | 0.00 | 0.00 | 0.00 | 69 | 1016.2 |
| 20260510114209 | 61 | 329 | 4.3 | 8.7 | 0.00 | 0.00 | 0.00 | 69 | 1016.2 |
| 20260510114104 | 61 | 317 | 4.3 | 8.7 | 0.00 | 0.00 | 0.00 | 69 | 1016.2 |
| 20260510114004 | 61 | 288 | 4.3 | 8.7 | 0.00 | 0.00 | 0.00 | 69 | 1016.1 |
| 20260510113905 | 60 | 290 | 4.3 | 8.7 | 0.00 | 0.00 | 0.00 | 68 | 1016.0 |
| 20260510113804 | 60 | 310 | 3.5 | 8.7 | 0.00 | 0.00 | 0.00 | 69 | 1016.0 |
| 20260510113703 | 60 | 315 | 3.5 | 8.7 | 0.00 | 0.00 | 0.00 | 70 | 1016.0 |
| 20260510113552 | 60 | 309 | 3.5 | 8.7 | 0.00 | 0.00 | 0.00 | 71 | 1015.9 |
| 20260510113451 | 60 | 312 | 3.5 | 7.0 | 0.00 | 0.00 | 0.00 | 72 | 1015.9 |
| 20260510113353 | 60 | 305 | 3.5 | 8.7 | 0.00 | 0.00 | 0.00 | 71 | 1015.9 |
| 20260510113251 | 60 | 301 | 3.5 | 8.7 | 0.00 | 0.00 | 0.00 | 72 | 1015.9 |
| 20260510113151 | 60 | 323 | 3.5 | 8.7 | 0.00 | 0.00 | 0.00 | 73 | 1015.8 |
| 20260510113048 | 60 | 315 | 3.5 | 8.7 | 0.00 | 0.00 | 0.00 | 74 | 1015.9 |
| 20260510112945 | 60 | 310 | 3.5 | 8.7 | 0.00 | 0.00 | 0.00 | 74 | 1015.8 |
| 20260510112846 | 60 | 313 | 3.5 | 8.7 | 0.00 | 0.00 | 0.00 | 74 | 1015.8 |
| 20260510112746 | 60 | 302 | 3.5 | 8.7 | 0.00 | 0.00 | 0.00 | 73 | 1015.7 |
| 20260510112645 | 60 | 304 | 3.5 | 8.7 | 0.00 | 0.00 | 0.00 | 73 | 1015.7 |
| 20260510112540 | 59 | 306 | 2.6 | 8.7 | 0.00 | 0.00 | 0.00 | 74 | 1015.6 |
| 20260510112438 | 59 | 288 | 2.6 | 8.7 | 0.00 | 0.00 | 0.00 | 76 | 1015.7 |
| 20260510112340 | 59 | 328 | 1.7 | 7.0 | 0.00 | 0.00 | 0.00 | 77 | 1015.7 |
| 20260510112239 | 59 | 309 | 1.7 | 7.0 | 0.00 | 0.00 | 0.00 | 78 | 1015.6 |
| 20260510112139 | 59 | 301 | 1.7 | 3.5 | 0.00 | 0.00 | 0.00 | 79 | 1015.5 |
| 20260510112031 | 59 | 298 | 1.7 | 3.5 | 0.00 | 0.00 | 0.00 | 79 | 1015.6 |
| 20260510111929 | 59 | 298 | 1.7 | 3.5 | 0.00 | 0.00 | 0.00 | 80 | 1015.6 |
| 20260510111830 | 59 | 269 | 1.7 | 2.6 | 0.00 | 0.00 | 0.00 | 79 | 1015.6 |
| 20260510111729 | 59 | 269 | 1.7 | 2.6 | 0.00 | 0.00 | 0.00 | 80 | 1015.6 |
| 20260510111629 | 59 | 268 | 1.7 | 2.6 | 0.00 | 0.00 | 0.00 | 80 | 1015.6 |
| 20260510111523 | 59 | 268 | 1.7 | 2.6 | 0.00 | 0.00 | 0.00 | 80 | 1015.5 |
| 20260510111423 | 59 | 267 | 1.7 | 3.5 | 0.00 | 0.00 | 0.00 | 80 | 1015.5 |
| 20260510111323 | 59 | 267 | 1.7 | 3.5 | 0.00 | 0.00 | 0.00 | 80 | 1015.5 |
| 20260510111223 | 59 | 268 | 1.7 | 3.5 | 0.00 | 0.00 | 0.00 | 80 | 1015.5 |
| 20260510111124 | 59 | 268 | 1.7 | 3.5 | 0.00 | 0.00 | 0.00 | 80 | 1015.5 |
| 20260510111020 | 59 | 268 | 1.7 | 3.5 | 0.00 | 0.00 | 0.00 | 80 | 1015.5 |
| 20260510110917 | 59 | 269 | 1.7 | 3.5 | 0.00 | 0.00 | 0.00 | 80 | 1015.5 |
| 20260510110818 | 59 | 271 | 1.7 | 3.5 | 0.00 | 0.00 | 0.00 | 80 | 1015.4 |
| 20260510110717 | 59 | 271 | 1.7 | 3.5 | 0.00 | 0.00 | 0.00 | 80 | 1015.4 |
| 20260510110617 | 59 | 272 | 1.7 | 3.5 | 0.00 | 0.00 | 0.00 | 80 | 1015.4 |
| 20260510110508 | 59 | 302 | 1.7 | 3.5 | 0.00 | 0.00 | 0.00 | 80 | 1015.5 |
| 20260510110407 | 58 | 290 | 1.7 | 3.5 | 0.00 | 0.00 | 0.00 | 80 | 1015.4 |
| 20260510110308 | 59 | 290 | 1.7 | 3.5 | 0.00 | 0.00 | 0.00 | 80 | 1015.4 |
| 20260510110207 | 59 | 293 | 1.7 | 3.5 | 0.00 | 0.00 | 0.00 | 80 | 1015.4 |
| 20260510110107 | 58 | 296 | 1.7 | 3.5 | 0.00 | 0.00 | 0.00 | 80 | 1015.4 |
| 20260510110002 | 58 | 295 | 1.7 | 3.5 | 0.00 | 0.00 | 0.00 | 80 | 1015.4 |
| 20260510105902 | 58 | 267 | 1.7 | 3.5 | 0.00 | 0.00 | 0.00 | 79 | 1015.3 |
| 20260510105803 | 58 | 265 | 1.7 | 3.5 | 0.00 | 0.00 | 0.00 | 79 | 1015.3 |
| 20260510105703 | 58 | 313 | 1.7 | 3.5 | 0.00 | 0.00 | 0.00 | 79 | 1015.4 |
| 20260510105601 | 58 | 301 | 1.7 | 3.5 | 0.00 | 0.00 | 0.00 | 79 | 1015.3 |
| 20260510105458 | 58 | 296 | 1.7 | 3.5 | 0.00 | 0.00 | 0.00 | 79 | 1015.3 |
| 20260510105356 | 58 | 296 | 1.7 | 3.5 | 0.00 | 0.00 | 0.00 | 79 | 1015.4 |
| 20260510105257 | 58 | 302 | 1.7 | 3.5 | 0.00 | 0.00 | 0.00 | 79 | 1015.3 |
| 20260510105158 | 58 | 298 | 2.6 | 3.5 | 0.00 | 0.00 | 0.00 | 79 | 1015.3 |
| 20260510105055 | 58 | 310 | 2.6 | 6.1 | 0.00 | 0.00 | 0.00 | 79 | 1015.1 |
| 20260510104948 | 58 | 312 | 2.6 | 6.1 | 0.00 | 0.00 | 0.00 | 79 | 1015.1 |
| 20260510104845 | 58 | 290 | 2.6 | 6.1 | 0.00 | 0.00 | 0.00 | 79 | 1015.3 |
| 20260510104746 | 58 | 298 | 2.6 | 6.1 | 0.00 | 0.00 | 0.00 | 79 | 1015.3 |
| 20260510104646 | 58 | 292 | 2.6 | 6.1 | 0.00 | 0.00 | 0.00 | 79 | 1015.3 |
| 20260510104545 | 58 | 290 | 2.6 | 6.1 | 0.00 | 0.00 | 0.00 | 79 | 1015.3 |
| 20260510104439 | 58 | 291 | 2.6 | 6.1 | 0.00 | 0.00 | 0.00 | 78 | 1015.3 |
| 20260510104338 | 58 | 284 | 2.6 | 6.1 | 0.00 | 0.00 | 0.00 | 78 | 1015.3 |
| 20260510104240 | 58 | 282 | 2.6 | 6.1 | 0.00 | 0.00 | 0.00 | 78 | 1015.1 |
| 20260510104140 | 58 | 281 | 1.7 | 6.1 | 0.00 | 0.00 | 0.00 | 78 | 1015.3 |
| 20260510104040 | 58 | 311 | 1.7 | 4.3 | 0.00 | 0.00 | 0.00 | 78 | 1015.1 |
| 20260510103934 | 58 | 310 | 1.7 | 4.3 | 0.00 | 0.00 | 0.00 | 78 | 1015.1 |
| 20260510103833 | 58 | 309 | 1.7 | 4.3 | 0.00 | 0.00 | 0.00 | 78 | 1015.1 |
| 20260510103734 | 58 | 301 | 1.7 | 4.3 | 0.00 | 0.00 | 0.00 | 78 | 1015.1 |
| 20260510103633 | 58 | 304 | 0.9 | 4.3 | 0.00 | 0.00 | 0.00 | 78 | 1015.1 |
| 20260510103534 | 58 | 269 | 0.9 | 2.6 | 0.00 | 0.00 | 0.00 | 78 | 1015.1 |
| 20260510103425 | 58 | 267 | 0.9 | 2.6 | 0.00 | 0.00 | 0.00 | 79 | 1015.0 |
| 20260510103326 | 58 | 263 | 0.9 | 2.6 | 0.00 | 0.00 | 0.00 | 79 | 1015.0 |
| 20260510103225 | 58 | 259 | 0.9 | 2.6 | 0.00 | 0.00 | 0.00 | 79 | 1015.0 |
| 20260510103125 | 58 | 259 | 0.9 | 2.6 | 0.00 | 0.00 | 0.00 | 79 | 1014.9 |
| 20260510103023 | 58 | 259 | 0.9 | 2.6 | 0.00 | 0.00 | 0.00 | 79 | 1015.0 |
| 20260510102918 | 58 | 259 | 0.9 | 2.6 | 0.00 | 0.00 | 0.00 | 78 | 1015.0 |
| 20260510102816 | 58 | 259 | 0.9 | 2.6 | 0.00 | 0.00 | 0.00 | 78 | 1014.8 |
| 20260510102718 | 58 | 259 | 0.9 | 2.6 | 0.00 | 0.00 | 0.00 | 79 | 1014.8 |
| 20260510102618 | 58 | 259 | 0.9 | 1.7 | 0.00 | 0.00 | 0.00 | 78 | 1014.8 |
| 20260510102517 | 58 | 259 | 0.9 | 1.7 | 0.00 | 0.00 | 0.00 | 78 | 1014.8 |
| 20260510102415 | 58 | 259 | 0.0 | 1.7 | 0.00 | 0.00 | 0.00 | 78 | 1014.7 |
| 20260510102312 | 58 | 259 | 0.0 | 1.7 | 0.00 | 0.00 | 0.00 | 78 | 1014.7 |
| 20260510102212 | 58 | 259 | 0.0 | 1.7 | 0.00 | 0.00 | 0.00 | 78 | 1014.6 |
| 20260510102111 | 58 | 259 | 0.0 | 1.7 | 0.00 | 0.00 | 0.00 | 78 | 1014.7 |
| 20260510102012 | 58 | 259 | 0.0 | 1.7 | 0.00 | 0.00 | 0.00 | 78 | 1014.5 |
| 20260510101901 | 58 | 259 | 0.0 | 1.7 | 0.00 | 0.00 | 0.00 | 78 | 1014.5 |
| 20260510101800 | 58 | 259 | 0.0 | 1.7 | 0.00 | 0.00 | 0.00 | 78 | 1014.6 |
| 20260510101702 | 58 | 259 | 0.0 | 3.5 | 0.00 | 0.00 | 0.00 | 78 | 1014.5 |
| 20260510101602 | 58 | 259 | 0.0 | 3.5 | 0.00 | 0.00 | 0.00 | 78 | 1014.5 |
| 20260510101501 | 58 | 259 | 0.0 | 3.5 | 0.00 | 0.00 | 0.00 | 78 | 1014.5 |
| 20260510101359 | 58 | 259 | 0.0 | 3.5 | 0.00 | 0.00 | 0.00 | 78 | 1014.5 |
| 20260510101259 | 58 | 259 | 0.0 | 3.5 | 0.00 | 0.00 | 0.00 | 78 | 1014.5 |
| 20260510101200 | 58 | 258 | 0.0 | 3.5 | 0.00 | 0.00 | 0.00 | 78 | 1014.5 |
| 20260510101058 | 58 | 295 | 0.0 | 3.5 | 0.00 | 0.00 | 0.00 | 78 | 1014.4 |
| 20260510100955 | 58 | 295 | 0.0 | 3.5 | 0.00 | 0.00 | 0.00 | 78 | 1014.5 |
| 20260510100855 | 58 | 295 | 0.0 | 3.5 | 0.00 | 0.00 | 0.00 | 78 | 1014.5 |
| 20260510100752 | 58 | 295 | 0.0 | 3.5 | 0.00 | 0.00 | 0.00 | 78 | 1014.5 |
| 20260510100653 | 58 | 272 | 0.0 | 1.7 | 0.00 | 0.00 | 0.00 | 78 | 1014.5 |
| 20260510100552 | 58 | 272 | 0.0 | 1.7 | 0.00 | 0.00 | 0.00 | 78 | 1014.4 |
| 20260510100450 | 58 | 272 | 0.0 | 1.7 | 0.00 | 0.00 | 0.00 | 78 | 1014.5 |
| 20260510100342 | 58 | 272 | 0.0 | 1.7 | 0.00 | 0.00 | 0.00 | 78 | 1014.4 |
| 20260510100243 | 58 | 272 | 0.0 | 1.7 | 0.00 | 0.00 | 0.00 | 78 | 1014.4 |
| 20260510100145 | 58 | 272 | 0.0 | 1.7 | 0.00 | 0.00 | 0.00 | 78 | 1014.4 |
| 20260510100043 | 58 | 272 | 0.0 | 1.7 | 0.00 | 0.00 | 0.00 | 79 | 1014.4 |
| 20260510095939 | 58 | 275 | 0.0 | 1.7 | 0.00 | 0.00 | 0.00 | 79 | 1014.3 |
| 20260510095838 | 58 | 275 | 0.0 | 1.7 | 0.00 | 0.00 | 0.00 | 79 | 1014.3 |
| 20260510095737 | 58 | 275 | 0.0 | 1.7 | 0.00 | 0.00 | 0.00 | 79 | 1014.3 |
| 20260510095635 | 58 | 275 | 0.0 | 1.7 | 0.00 | 0.00 | 0.00 | 79 | 1014.4 |
| 20260510095535 | 58 | 275 | 0.0 | 1.7 | 0.00 | 0.00 | 0.00 | 79 | 1014.3 |
| 20260510095434 | 58 | 275 | 0.0 | 1.7 | 0.00 | 0.00 | 0.00 | 79 | 1014.3 |
| 20260510095334 | 58 | 275 | 0.0 | 1.7 | 0.00 | 0.00 | 0.00 | 79 | 1014.3 |
| 20260510095231 | 58 | 275 | 0.0 | 0.0 | 0.00 | 0.00 | 0.00 | 79 | 1014.4 |
| 20260510095131 | 58 | 275 | 0.0 | 0.0 | 0.00 | 0.00 | 0.00 | 79 | 1014.3 |
| 20260510095030 | 58 | 275 | 0.0 | 0.9 | 0.00 | 0.00 | 0.00 | 79 | 1014.3 |
| 20260510094927 | 58 | 275 | 0.0 | 0.9 | 0.00 | 0.00 | 0.00 | 79 | 1014.3 |
| 20260510094819 | 58 | 275 | 0.0 | 0.9 | 0.00 | 0.00 | 0.00 | 79 | 1014.3 |
| 20260510094719 | 58 | 275 | 0.0 | 0.9 | 0.00 | 0.00 | 0.00 | 78 | 1014.3 |
| 20260510094618 | 58 | 275 | 0.0 | 1.7 | 0.00 | 0.00 | 0.00 | 78 | 1014.2 |
| 20260510094516 | 58 | 275 | 0.0 | 1.7 | 0.00 | 0.00 | 0.00 | 78 | 1014.3 |
| 20260510094418 | 58 | 275 | 0.9 | 1.7 | 0.00 | 0.00 | 0.00 | 78 | 1014.2 |
| 20260510094316 | 58 | 275 | 0.9 | 2.6 | 0.00 | 0.00 | 0.00 | 79 | 1014.3 |
| 20260510094215 | 58 | 275 | 0.9 | 2.6 | 0.00 | 0.00 | 0.00 | 79 | 1014.3 |
| 20260510094115 | 58 | 275 | 0.9 | 2.6 | 0.00 | 0.00 | 0.00 | 79 | 1014.3 |
| 20260510094013 | 58 | 275 | 0.9 | 2.6 | 0.00 | 0.00 | 0.00 | 79 | 1014.3 |
| 20260510093912 | 58 | 275 | 0.9 | 2.6 | 0.00 | 0.00 | 0.00 | 79 | 1014.2 |
| 20260510093805 | 58 | 275 | 0.9 | 2.6 | 0.00 | 0.00 | 0.00 | 79 | 1014.3 |
| 20260510093705 | 58 | 275 | 0.9 | 2.6 | 0.00 | 0.00 | 0.00 | 79 | 1014.4 |
| 20260510093606 | 58 | 275 | 0.9 | 2.6 | 0.00 | 0.00 | 0.00 | 79 | 1014.3 |
| 20260510093505 | 59 | 275 | 0.9 | 2.6 | 0.00 | 0.00 | 0.00 | 79 | 1014.4 |
| 20260510093406 | 59 | 275 | 0.9 | 2.6 | 0.00 | 0.00 | 0.00 | 78 | 1014.3 |
| 20260510093257 | 59 | 275 | 0.9 | 1.7 | 0.00 | 0.00 | 0.00 | 78 | 1014.3 |
| 20260510093156 | 59 | 275 | 0.9 | 1.7 | 0.00 | 0.00 | 0.00 | 78 | 1014.3 |
| 20260510093055 | 59 | 275 | 0.9 | 2.6 | 0.00 | 0.00 | 0.00 | 78 | 1014.3 |
| 20260510092955 | 59 | 275 | 0.9 | 2.6 | 0.00 | 0.00 | 0.00 | 78 | 1014.3 |
| 20260510092856 | 59 | 275 | 0.9 | 2.6 | 0.00 | 0.00 | 0.00 | 78 | 1014.3 |
| 20260510092756 | 59 | 275 | 0.9 | 2.6 | 0.00 | 0.00 | 0.00 | 78 | 1014.3 |
| 20260510092654 | 59 | 274 | 0.9 | 2.6 | 0.00 | 0.00 | 0.00 | 78 | 1014.2 |
| 20260510092551 | 59 | 274 | 0.9 | 2.6 | 0.00 | 0.00 | 0.00 | 78 | 1014.2 |
| 20260510092452 | 59 | 274 | 0.9 | 2.6 | 0.00 | 0.00 | 0.00 | 78 | 1014.2 |
| 20260510092349 | 59 | 274 | 0.9 | 2.6 | 0.00 | 0.00 | 0.00 | 78 | 1014.3 |
| 20260510092249 | 59 | 274 | 0.9 | 2.6 | 0.00 | 0.00 | 0.00 | 78 | 1014.2 |
| 20260510092147 | 59 | 274 | 0.9 | 2.6 | 0.00 | 0.00 | 0.00 | 78 | 1014.2 |
| 20260510092047 | 59 | 288 | 0.9 | 2.6 | 0.00 | 0.00 | 0.00 | 78 | 1014.3 |
| 20260510091946 | 59 | 288 | 0.9 | 2.6 | 0.00 | 0.00 | 0.00 | 78 | 1014.2 |
| 20260510091844 | 59 | 288 | 0.9 | 2.6 | 0.00 | 0.00 | 0.00 | 78 | 1014.3 |
| 20260510091737 | 59 | 289 | 0.9 | 2.6 | 0.00 | 0.00 | 0.00 | 78 | 1014.2 |
| 20260510091637 | 59 | 285 | 0.9 | 2.6 | 0.00 | 0.00 | 0.00 | 78 | 1014.3 |
| 20260510091538 | 59 | 311 | 0.9 | 1.7 | 0.00 | 0.00 | 0.00 | 78 | 1014.1 |
| 20260510091437 | 59 | 311 | 0.9 | 1.7 | 0.00 | 0.00 | 0.00 | 78 | 1014.2 |
| 20260510091334 | 59 | 311 | 0.9 | 2.6 | 0.00 | 0.00 | 0.00 | 78 | 1014.1 |
| 20260510091228 | 59 | 311 | 0.9 | 2.6 | 0.00 | 0.00 | 0.00 | 78 | 1014.2 |
| 20260510091127 | 59 | 311 | 0.9 | 2.6 | 0.00 | 0.00 | 0.00 | 78 | 1014.2 |
| 20260510091028 | 59 | 311 | 0.9 | 3.5 | 0.00 | 0.00 | 0.00 | 78 | 1014.2 |
| 20260510090928 | 59 | 312 | 0.9 | 3.5 | 0.00 | 0.00 | 0.00 | 78 | 1014.1 |
| 20260510090828 | 59 | 312 | 0.9 | 3.5 | 0.00 | 0.00 | 0.00 | 78 | 1014.1 |
| 20260510090727 | 59 | 312 | 0.9 | 3.5 | 0.00 | 0.00 | 0.00 | 78 | 1014.1 |
| 20260510090626 | 59 | 312 | 0.9 | 3.5 | 0.00 | 0.00 | 0.00 | 78 | 1014.1 |
| 20260510090524 | 59 | 312 | 0.9 | 3.5 | 0.00 | 0.00 | 0.00 | 78 | 1014.1 |
| 20260510090424 | 59 | 312 | 0.9 | 3.5 | 0.00 | 0.00 | 0.00 | 78 | 1014.1 |
| 20260510090322 | 59 | 312 | 0.9 | 3.5 | 0.00 | 0.00 | 0.00 | 78 | 1014.1 |
| 20260510090213 | 59 | 312 | 0.9 | 3.5 | 0.00 | 0.00 | 0.00 | 78 | 1014.1 |
| 20260510090111 | 59 | 313 | 0.9 | 3.5 | 0.00 | 0.00 | 0.00 | 78 | 1014.1 |
| 20260510090011 | 59 | 277 | 0.9 | 1.7 | 0.00 | 0.00 | 0.00 | 78 | 1014.2 |
| 20260510085912 | 59 | 277 | 0.9 | 1.7 | 0.00 | 0.00 | 0.00 | 78 | 1014.1 |
| 20260510085811 | 59 | 277 | 0.0 | 1.7 | 0.00 | 0.00 | 0.00 | 78 | 1014.2 |
| 20260510085712 | 59 | 277 | 0.0 | 1.7 | 0.00 | 0.00 | 0.00 | 78 | 1014.2 |
| 20260510085609 | 59 | 277 | 0.0 | 1.7 | 0.00 | 0.00 | 0.00 | 78 | 1014.1 |
| 20260510085507 | 59 | 277 | 0.0 | 1.7 | 0.00 | 0.00 | 0.00 | 77 | 1014.1 |
| 20260510085408 | 59 | 277 | 0.0 | 1.7 | 0.00 | 0.00 | 0.00 | 77 | 1014.1 |
| 20260510085306 | 59 | 274 | 0.0 | 0.0 | 0.00 | 0.00 | 0.00 | 78 | 1014.1 |
| 20260510085203 | 59 | 274 | 0.0 | 0.0 | 0.00 | 0.00 | 0.00 | 77 | 1014.1 |
| 20260510085104 | 59 | 274 | 0.0 | 0.0 | 0.00 | 0.00 | 0.00 | 77 | 1014.1 |
| 20260510085000 | 59 | 274 | 0.0 | 0.0 | 0.00 | 0.00 | 0.00 | 77 | 1014.1 |
| 20260510084902 | 59 | 273 | 0.0 | 0.0 | 0.00 | 0.00 | 0.00 | 77 | 1014.1 |
| 20260510084801 | 59 | 273 | 0.0 | 0.0 | 0.00 | 0.00 | 0.00 | 77 | 1014.1 |
| 20260510084701 | 59 | 273 | 0.0 | 0.0 | 0.00 | 0.00 | 0.00 | 77 | 1014.1 |
| 20260510084601 | 59 | 273 | 0.0 | 0.0 | 0.00 | 0.00 | 0.00 | 77 | 1014.2 |
| 20260510084501 | 59 | 273 | 0.0 | 0.0 | 0.00 | 0.00 | 0.00 | 77 | 1014.1 |
| 20260510084401 | 59 | 273 | 0.0 | 0.0 | 0.00 | 0.00 | 0.00 | 77 | 1014.1 |
| 20260510084302 | 59 | 273 | 0.0 | 0.0 | 0.00 | 0.00 | 0.00 | 77 | 1014.1 |
| 20260510084202 | 59 | 273 | 0.0 | 0.0 | 0.00 | 0.00 | 0.00 | 77 | 1014.1 |
| 20260510084100 | 59 | 273 | 0.0 | 0.0 | 0.00 | 0.00 | 0.00 | 76 | 1014.1 |
| 20260510083959 | 60 | 273 | 0.0 | 0.0 | 0.00 | 0.00 | 0.00 | 76 | 1014.0 |
| 20260510083856 | 60 | 273 | 0.0 | 0.0 | 0.00 | 0.00 | 0.00 | 76 | 1014.1 |
| 20260510083758 | 60 | 273 | 0.0 | 0.0 | 0.00 | 0.00 | 0.00 | 76 | 1014.0 |
| 20260510083655 | 60 | 273 | 0.0 | 0.0 | 0.00 | 0.00 | 0.00 | 76 | 1014.0 |
| 20260510083552 | 60 | 274 | 0.0 | 0.0 | 0.00 | 0.00 | 0.00 | 76 | 1014.0 |
| 20260510083454 | 60 | 274 | 0.0 | 0.0 | 0.00 | 0.00 | 0.00 | 76 | 1014.0 |
| 20260510083351 | 60 | 274 | 0.0 | 0.0 | 0.00 | 0.00 | 0.00 | 76 | 1014.0 |
| 20260510083252 | 60 | 274 | 0.0 | 0.0 | 0.00 | 0.00 | 0.00 | 76 | 1014.0 |
| 20260510083151 | 60 | 274 | 0.0 | 0.0 | 0.00 | 0.00 | 0.00 | 76 | 1014.0 |
| 20260510083051 | 60 | 274 | 0.0 | 0.0 | 0.00 | 0.00 | 0.00 | 76 | 1014.0 |
| 20260510082946 | 60 | 274 | 0.0 | 0.0 | 0.00 | 0.00 | 0.00 | 76 | 1014.0 |
| 20260510082845 | 60 | 274 | 0.0 | 0.0 | 0.00 | 0.00 | 0.00 | 76 | 1014.0 |
| 20260510082745 | 60 | 274 | 0.0 | 0.0 | 0.00 | 0.00 | 0.00 | 76 | 1013.9 |
| 20260510082645 | 60 | 274 | 0.0 | 0.9 | 0.00 | 0.00 | 0.00 | 76 | 1013.9 |
| 20260510082546 | 60 | 274 | 0.0 | 0.9 | 0.00 | 0.00 | 0.00 | 76 | 1014.0 |
| 20260510082445 | 60 | 274 | 0.0 | 0.9 | 0.00 | 0.00 | 0.00 | 76 | 1013.8 |
| 20260510082342 | 60 | 274 | 0.0 | 0.9 | 0.00 | 0.00 | 0.00 | 76 | 1013.9 |
| 20260510082244 | 60 | 274 | 0.0 | 0.9 | 0.00 | 0.00 | 0.00 | 75 | 1013.8 |
| 20260510082142 | 60 | 274 | 0.0 | 1.7 | 0.00 | 0.00 | 0.00 | 75 | 1013.9 |
| 20260510082040 | 60 | 274 | 0.0 | 1.7 | 0.00 | 0.00 | 0.00 | 75 | 1013.8 |
| 20260510081939 | 60 | 274 | 0.0 | 1.7 | 0.00 | 0.00 | 0.00 | 75 | 1013.8 |
| 20260510081838 | 60 | 274 | 0.0 | 1.7 | 0.00 | 0.00 | 0.00 | 75 | 1013.8 |
| 20260510081737 | 60 | 274 | 0.0 | 2.6 | 0.00 | 0.00 | 0.00 | 75 | 1013.8 |
| 20260510081636 | 60 | 273 | 0.0 | 2.6 | 0.00 | 0.00 | 0.00 | 76 | 1013.8 |
| 20260510081533 | 60 | 273 | 0.0 | 2.6 | 0.00 | 0.00 | 0.00 | 75 | 1013.8 |
| 20260510081434 | 60 | 273 | 0.0 | 2.6 | 0.00 | 0.00 | 0.00 | 75 | 1013.7 |
| 20260510081332 | 60 | 273 | 0.0 | 2.6 | 0.00 | 0.00 | 0.00 | 75 | 1013.7 |
| 20260510081231 | 60 | 273 | 0.0 | 2.6 | 0.00 | 0.00 | 0.00 | 75 | 1013.8 |
| 20260510081128 | 60 | 275 | 0.9 | 2.6 | 0.00 | 0.00 | 0.00 | 75 | 1013.7 |
| 20260510081030 | 60 | 275 | 0.9 | 2.6 | 0.00 | 0.00 | 0.00 | 75 | 1013.7 |
| 20260510080928 | 60 | 275 | 0.9 | 2.6 | 0.00 | 0.00 | 0.00 | 75 | 1013.7 |
| 20260510080830 | 60 | 275 | 0.9 | 2.6 | 0.00 | 0.00 | 0.00 | 75 | 1013.7 |
| 20260510080728 | 60 | 275 | 0.9 | 2.6 | 0.00 | 0.00 | 0.00 | 75 | 1013.5 |
| 20260510080628 | 60 | 275 | 0.9 | 2.6 | 0.00 | 0.00 | 0.00 | 75 | 1013.7 |
| 20260510080527 | 60 | 275 | 0.9 | 2.6 | 0.00 | 0.00 | 0.00 | 75 | 1013.7 |
| 20260510080427 | 60 | 275 | 0.9 | 2.6 | 0.00 | 0.00 | 0.00 | 75 | 1013.5 |
| 20260510080326 | 60 | 277 | 0.9 | 2.6 | 0.00 | 0.00 | 0.00 | 75 | 1013.5 |
| 20260510080226 | 61 | 277 | 0.9 | 2.6 | 0.00 | 0.00 | 0.00 | 75 | 1013.5 |
| 20260510080125 | 61 | 263 | 0.9 | 2.6 | 0.00 | 0.00 | 0.00 | 74 | 1013.5 |
| 20260510080026 | 61 | 263 | 0.9 | 2.6 | 0.00 | 0.00 | 0.00 | 74 | 1013.5 |
| 20260510075926 | 61 | 263 | 0.9 | 2.6 | 0.00 | 0.00 | 0.00 | 74 | 1013.5 |
| 20260510075825 | 61 | 280 | 0.9 | 2.6 | 0.00 | 0.00 | 0.00 | 74 | 1013.4 |
| 20260510075724 | 61 | 313 | 0.9 | 2.6 | 0.00 | 0.00 | 0.00 | 74 | 1013.5 |
| 20260510075623 | 61 | 313 | 0.0 | 2.6 | 0.00 | 0.00 | 0.00 | 74 | 1013.4 |
| 20260510075523 | 61 | 318 | 0.0 | 2.6 | 0.00 | 0.00 | 0.00 | 74 | 1013.4 |
| 20260510075422 | 61 | 318 | 0.9 | 2.6 | 0.00 | 0.00 | 0.00 | 74 | 1013.4 |
| 20260510075319 | 61 | 318 | 0.9 | 3.5 | 0.00 | 0.00 | 0.00 | 74 | 1013.4 |
| 20260510075220 | 61 | 319 | 0.9 | 3.5 | 0.00 | 0.00 | 0.00 | 74 | 1013.4 |
| 20260510075116 | 61 | 278 | 0.0 | 3.5 | 0.00 | 0.00 | 0.00 | 74 | 1013.4 |
| 20260510075016 | 61 | 301 | 0.9 | 3.5 | 0.00 | 0.00 | 0.00 | 74 | 1013.4 |
| 20260510074915 | 61 | 301 | 0.9 | 3.5 | 0.00 | 0.00 | 0.00 | 74 | 1013.4 |
| 20260510074814 | 61 | 301 | 0.9 | 3.5 | 0.00 | 0.00 | 0.00 | 74 | 1013.4 |
| 20260510074714 | 61 | 299 | 0.9 | 3.5 | 0.00 | 0.00 | 0.00 | 74 | 1013.4 |
| 20260510074612 | 61 | 299 | 0.9 | 4.3 | 0.00 | 0.00 | 0.00 | 74 | 1013.4 |
| 20260510074512 | 61 | 300 | 1.7 | 4.3 | 0.00 | 0.00 | 0.00 | 73 | 1013.3 |
| 20260510074409 | 61 | 300 | 1.7 | 4.3 | 0.00 | 0.00 | 0.00 | 74 | 1013.4 |
| 20260510074309 | 61 | 298 | 1.7 | 4.3 | 0.00 | 0.00 | 0.00 | 74 | 1013.4 |
| 20260510074209 | 61 | 302 | 1.7 | 4.3 | 0.00 | 0.00 | 0.00 | 74 | 1013.4 |
| 20260510074110 | 61 | 302 | 2.6 | 4.3 | 0.00 | 0.00 | 0.00 | 74 | 1013.3 |
| 20260510074007 | 62 | 310 | 2.6 | 4.3 | 0.00 | 0.00 | 0.00 | 74 | 1013.4 |
| 20260510073907 | 62 | 304 | 2.6 | 4.3 | 0.00 | 0.00 | 0.00 | 73 | 1013.3 |
| 20260510073807 | 62 | 306 | 2.6 | 5.2 | 0.00 | 0.00 | 0.00 | 73 | 1013.3 |
| 20260510073704 | 62 | 302 | 2.6 | 5.2 | 0.00 | 0.00 | 0.00 | 73 | 1013.3 |
| 20260510073606 | 62 | 302 | 2.6 | 5.2 | 0.00 | 0.00 | 0.00 | 73 | 1013.3 |
| 20260510073506 | 62 | 304 | 3.5 | 5.2 | 0.00 | 0.00 | 0.00 | 73 | 1013.3 |
| 20260510073406 | 62 | 301 | 3.5 | 5.2 | 0.00 | 0.00 | 0.00 | 73 | 1013.4 |
| 20260510073305 | 62 | 304 | 3.5 | 5.2 | 0.00 | 0.00 | 0.00 | 73 | 1013.3 |
| 20260510073205 | 62 | 309 | 3.5 | 5.2 | 0.00 | 0.00 | 0.00 | 73 | 1013.3 |
| 20260510073106 | 62 | 298 | 3.5 | 5.2 | 0.00 | 0.00 | 0.00 | 73 | 1013.3 |
| 20260510073001 | 62 | 299 | 3.5 | 5.2 | 0.00 | 0.00 | 0.00 | 73 | 1013.3 |
| 20260510072900 | 62 | 273 | 3.5 | 5.2 | 0.00 | 0.00 | 0.00 | 73 | 1013.2 |
| 20260510072801 | 62 | 313 | 3.5 | 7.0 | 0.00 | 0.00 | 0.00 | 73 | 1013.2 |
| 20260510072700 | 62 | 291 | 3.5 | 7.0 | 0.00 | 0.00 | 0.00 | 73 | 1013.2 |
| 20260510072602 | 62 | 299 | 4.3 | 7.0 | 0.00 | 0.00 | 0.00 | 72 | 1013.2 |
| 20260510072501 | 62 | 291 | 4.3 | 7.0 | 0.00 | 0.00 | 0.00 | 72 | 1013.3 |
| 20260510072402 | 62 | 306 | 4.3 | 7.0 | 0.00 | 0.00 | 0.00 | 72 | 1013.2 |
| 20260510072300 | 62 | 290 | 4.3 | 7.0 | 0.00 | 0.00 | 0.00 | 72 | 1013.3 |
| 20260510072202 | 62 | 314 | 4.3 | 7.0 | 0.00 | 0.00 | 0.00 | 73 | 1013.3 |
| 20260510072100 | 62 | 296 | 4.3 | 7.0 | 0.00 | 0.00 | 0.00 | 73 | 1013.2 |
| 20260510072002 | 62 | 273 | 4.3 | 7.0 | 0.00 | 0.00 | 0.00 | 73 | 1013.2 |
| 20260510071900 | 62 | 303 | 4.3 | 7.0 | 0.00 | 0.00 | 0.00 | 73 | 1013.3 |
| 20260510071801 | 62 | 300 | 3.5 | 7.0 | 0.00 | 0.00 | 0.00 | 73 | 1013.2 |
| 20260510071701 | 62 | 295 | 3.5 | 7.0 | 0.00 | 0.00 | 0.00 | 73 | 1013.3 |
| 20260510071601 | 62 | 287 | 3.5 | 7.0 | 0.00 | 0.00 | 0.00 | 73 | 1013.2 |
| 20260510071501 | 62 | 311 | 3.5 | 7.0 | 0.00 | 0.00 | 0.00 | 73 | 1013.3 |
| 20260510071401 | 62 | 301 | 3.5 | 6.1 | 0.00 | 0.00 | 0.00 | 73 | 1013.2 |
| 20260510071258 | 61 | 304 | 3.5 | 6.1 | 0.00 | 0.00 | 0.00 | 73 | 1013.2 |
| 20260510071155 | 61 | 294 | 3.5 | 6.1 | 0.00 | 0.00 | 0.00 | 73 | 1013.3 |
| 20260510071056 | 61 | 314 | 3.5 | 7.0 | 0.00 | 0.00 | 0.00 | 73 | 1013.2 |
| 20260510070956 | 61 | 301 | 3.5 | 7.0 | 0.00 | 0.00 | 0.00 | 73 | 1013.2 |
| 20260510070855 | 61 | 307 | 3.5 | 7.0 | 0.00 | 0.00 | 0.00 | 74 | 1013.2 |
| 20260510070748 | 61 | 303 | 2.6 | 7.0 | 0.00 | 0.00 | 0.00 | 74 | 1013.3 |
| 20260510070649 | 61 | 309 | 2.6 | 7.0 | 0.00 | 0.00 | 0.00 | 74 | 1013.3 |
| 20260510070549 | 61 | 302 | 2.6 | 7.0 | 0.00 | 0.00 | 0.00 | 74 | 1013.3 |
| 20260510070450 | 61 | 300 | 2.6 | 7.0 | 0.00 | 0.00 | 0.00 | 74 | 1013.3 |
| 20260510070349 | 61 | 295 | 2.6 | 7.0 | 0.00 | 0.00 | 0.00 | 74 | 1013.4 |
| 20260510070246 | 61 | 291 | 2.6 | 7.0 | 0.00 | 0.00 | 0.00 | 74 | 1013.3 |
| 20260510070142 | 61 | 294 | 1.7 | 7.0 | 0.00 | 0.00 | 0.00 | 74 | 1013.4 |
| 20260510070044 | 60 | 293 | 1.7 | 3.5 | 0.00 | 0.00 | 0.00 | 74 | 1013.4 |
| 20260510065942 | 60 | 280 | 1.7 | 3.5 | 0.00 | 0.00 | 0.00 | 75 | 1013.4 |
| 20260510065843 | 60 | 271 | 1.7 | 3.5 | 0.00 | 0.00 | 0.00 | 75 | 1013.3 |
| 20260510065744 | 60 | 296 | 1.7 | 4.3 | 0.00 | 0.00 | 0.00 | 74 | 1013.3 |
| 20260510065641 | 60 | 278 | 1.7 | 4.3 | 0.00 | 0.00 | 0.00 | 75 | 1013.3 |
| 20260510065539 | 60 | 276 | 1.7 | 4.3 | 0.00 | 0.00 | 0.00 | 75 | 1013.3 |
| 20260510065439 | 60 | 266 | 1.7 | 4.3 | 0.00 | 0.00 | 0.00 | 75 | 1013.3 |
| 20260510065339 | 60 | 261 | 1.7 | 4.3 | 0.00 | 0.00 | 0.00 | 75 | 1013.3 |
| 20260510065240 | 60 | 278 | 1.7 | 4.3 | 0.00 | 0.00 | 0.00 | 75 | 1013.2 |
| 20260510065138 | 60 | 286 | 1.7 | 4.3 | 0.00 | 0.00 | 0.00 | 75 | 1013.2 |
| 20260510065038 | 60 | 290 | 1.7 | 4.3 | 0.00 | 0.00 | 0.00 | 75 | 1013.3 |
| 20260510064937 | 60 | 302 | 1.7 | 4.3 | 0.00 | 0.00 | 0.00 | 75 | 1013.3 |
| 20260510064838 | 60 | 309 | 0.9 | 4.3 | 0.00 | 0.00 | 0.00 | 75 | 1013.3 |
| 20260510064734 | 60 | 269 | 0.9 | 3.5 | 0.00 | 0.00 | 0.00 | 75 | 1013.2 |
| 20260510064633 | 60 | 263 | 0.9 | 2.6 | 0.00 | 0.00 | 0.00 | 76 | 1013.3 |
| 20260510064533 | 60 | 262 | 0.9 | 2.6 | 0.00 | 0.00 | 0.00 | 76 | 1013.3 |
| 20260510064432 | 60 | 271 | 0.9 | 2.6 | 0.00 | 0.00 | 0.00 | 76 | 1013.3 |
| 20260510064330 | 60 | 271 | 0.9 | 2.6 | 0.00 | 0.00 | 0.00 | 76 | 1013.2 |
| 20260510064230 | 60 | 271 | 0.9 | 2.6 | 0.00 | 0.00 | 0.00 | 76 | 1013.4 |
| 20260510064131 | 60 | 271 | 0.9 | 2.6 | 0.00 | 0.00 | 0.00 | 76 | 1013.3 |
| 20260510064030 | 60 | 269 | 0.9 | 2.6 | 0.00 | 0.00 | 0.00 | 76 | 1013.3 |
| 20260510063929 | 60 | 269 | 0.9 | 2.6 | 0.00 | 0.00 | 0.00 | 77 | 1013.3 |
| 20260510063828 | 60 | 269 | 0.0 | 2.6 | 0.00 | 0.00 | 0.00 | 76 | 1013.4 |
| 20260510063728 | 60 | 269 | 0.0 | 2.6 | 0.00 | 0.00 | 0.00 | 76 | 1013.3 |
| 20260510063625 | 60 | 269 | 0.0 | 1.7 | 0.00 | 0.00 | 0.00 | 77 | 1013.3 |
| 20260510063524 | 60 | 269 | 0.0 | 1.7 | 0.00 | 0.00 | 0.00 | 77 | 1013.4 |
| 20260510063423 | 60 | 269 | 0.0 | 0.0 | 0.00 | 0.00 | 0.00 | 77 | 1013.3 |
| 20260510063323 | 60 | 269 | 0.0 | 0.0 | 0.00 | 0.00 | 0.00 | 77 | 1013.4 |
| 20260510063220 | 60 | 269 | 0.0 | 0.0 | 0.00 | 0.00 | 0.00 | 77 | 1013.3 |
| 20260510063120 | 60 | 269 | 0.0 | 0.0 | 0.00 | 0.00 | 0.00 | 77 | 1013.4 |
| 20260510063015 | 60 | 269 | 0.0 | 0.9 | 0.00 | 0.00 | 0.00 | 77 | 1013.3 |
| 20260510062912 | 60 | 269 | 0.0 | 0.9 | 0.00 | 0.00 | 0.00 | 77 | 1013.4 |
| 20260510062813 | 60 | 269 | 0.0 | 0.9 | 0.00 | 0.00 | 0.00 | 77 | 1013.3 |
| 20260510062712 | 60 | 269 | 0.0 | 0.9 | 0.00 | 0.00 | 0.00 | 77 | 1013.4 |
| 20260510062609 | 60 | 269 | 0.0 | 0.9 | 0.00 | 0.00 | 0.00 | 77 | 1013.4 |
| 20260510062503 | 60 | 269 | 0.0 | 0.9 | 0.00 | 0.00 | 0.00 | 77 | 1013.3 |
| 20260510062404 | 60 | 269 | 0.0 | 0.9 | 0.00 | 0.00 | 0.00 | 78 | 1013.4 |
| 20260510062306 | 60 | 269 | 0.0 | 3.5 | 0.00 | 0.00 | 0.00 | 77 | 1013.4 |
| 20260510062204 | 60 | 269 | 0.0 | 3.5 | 0.00 | 0.00 | 0.00 | 78 | 1013.4 |
| 20260510062104 | 60 | 269 | 0.0 | 3.5 | 0.00 | 0.00 | 0.00 | 78 | 1013.3 |
| 20260510061957 | 60 | 269 | 0.0 | 3.5 | 0.00 | 0.00 | 0.00 | 78 | 1013.4 |
| 20260510061856 | 60 | 269 | 0.0 | 3.5 | 0.00 | 0.00 | 0.00 | 78 | 1013.4 |
| 20260510061757 | 60 | 269 | 0.0 | 3.5 | 0.00 | 0.00 | 0.00 | 78 | 1013.4 |
| 20260510061657 | 60 | 269 | 0.0 | 3.5 | 0.00 | 0.00 | 0.00 | 77 | 1013.4 |
| 20260510061557 | 60 | 269 | 0.0 | 3.5 | 0.00 | 0.00 | 0.00 | 78 | 1013.4 |
| 20260510061457 | 60 | 269 | 0.0 | 3.5 | 0.00 | 0.00 | 0.00 | 77 | 1013.4 |
| 20260510061357 | 60 | 269 | 0.0 | 3.5 | 0.00 | 0.00 | 0.00 | 77 | 1013.4 |
| 20260510061258 | 60 | 240 | 0.9 | 2.6 | 0.00 | 0.00 | 0.00 | 78 | 1013.5 |
| 20260510061156 | 60 | 240 | 0.0 | 2.6 | 0.00 | 0.00 | 0.00 | 77 | 1013.4 |
| 20260510061056 | 60 | 240 | 0.9 | 2.6 | 0.00 | 0.00 | 0.00 | 77 | 1013.5 |
| 20260510060956 | 60 | 240 | 0.9 | 2.6 | 0.00 | 0.00 | 0.00 | 77 | 1013.5 |
| 20260510060856 | 60 | 282 | 0.9 | 2.6 | 0.00 | 0.00 | 0.00 | 78 | 1013.5 |
| 20260510060757 | 60 | 282 | 0.9 | 3.5 | 0.00 | 0.00 | 0.00 | 78 | 1013.5 |
| 20260510060655 | 60 | 282 | 0.9 | 3.5 | 0.00 | 0.00 | 0.00 | 78 | 1013.5 |
| 20260510060556 | 60 | 282 | 0.9 | 3.5 | 0.00 | 0.00 | 0.00 | 78 | 1013.5 |
| 20260510060452 | 60 | 283 | 0.9 | 3.5 | 0.00 | 0.00 | 0.00 | 78 | 1013.5 |
| 20260510060351 | 60 | 284 | 0.9 | 3.5 | 0.00 | 0.00 | 0.00 | 78 | 1013.4 |
| 20260510060250 | 60 | 283 | 0.9 | 3.5 | 0.00 | 0.00 | 0.00 | 78 | 1013.4 |
| 20260510060149 | 60 | 281 | 0.9 | 3.5 | 0.00 | 0.00 | 0.00 | 78 | 1013.4 |
| 20260510060049 | 60 | 281 | 0.9 | 3.5 | 0.00 | 0.00 | 0.00 | 78 | 1013.4 |
| 20260510055950 | 60 | 293 | 0.0 | 3.5 | 0.00 | 0.00 | 0.00 | 78 | 1013.4 |
| 20260510055849 | 60 | 294 | 0.0 | 3.5 | 0.00 | 0.00 | 0.00 | 79 | 1013.5 |
| 20260510055745 | 60 | 287 | 0.0 | 1.7 | 0.00 | 0.00 | 0.00 | 79 | 1013.4 |
| 20260510055644 | 60 | 287 | 0.0 | 1.7 | 0.00 | 0.00 | 0.00 | 79 | 1013.5 |
| 20260510055542 | 60 | 287 | 0.0 | 1.7 | 0.00 | 0.00 | 0.00 | 79 | 1013.5 |
| 20260510055443 | 60 | 287 | 0.0 | 1.7 | 0.00 | 0.00 | 0.00 | 79 | 1013.5 |
| 20260510055344 | 60 | 287 | 0.0 | 1.7 | 0.00 | 0.00 | 0.00 | 78 | 1013.7 |
| 20260510055244 | 60 | 287 | 0.0 | 1.7 | 0.00 | 0.00 | 0.00 | 78 | 1013.5 |
| 20260510055142 | 60 | 287 | 0.0 | 3.5 | 0.00 | 0.00 | 0.00 | 78 | 1013.8 |
| 20260510055042 | 60 | 284 | 0.0 | 3.5 | 0.00 | 0.00 | 0.00 | 78 | 1013.7 |
| 20260510054939 | 60 | 281 | 0.0 | 3.5 | 0.00 | 0.00 | 0.00 | 78 | 1013.7 |
| 20260510054839 | 60 | 281 | 0.0 | 3.5 | 0.00 | 0.00 | 0.00 | 78 | 1013.7 |
| 20260510054739 | 60 | 281 | 0.0 | 3.5 | 0.00 | 0.00 | 0.00 | 79 | 1013.5 |
| 20260510054639 | 60 | 280 | 0.0 | 3.5 | 0.00 | 0.00 | 0.00 | 79 | 1013.7 |
| 20260510054538 | 60 | 281 | 0.0 | 3.5 | 0.00 | 0.00 | 0.00 | 79 | 1013.7 |
| 20260510054438 | 60 | 281 | 0.0 | 3.5 | 0.00 | 0.00 | 0.00 | 79 | 1013.5 |
| 20260510054340 | 60 | 281 | 0.0 | 3.5 | 0.00 | 0.00 | 0.00 | 79 | 1013.5 |
| 20260510054238 | 60 | 277 | 0.0 | 3.5 | 0.00 | 0.00 | 0.00 | 79 | 1013.5 |
| 20260510054137 | 60 | 230 | 0.0 | 2.6 | 0.00 | 0.00 | 0.00 | 79 | 1013.5 |
| 20260510054035 | 60 | 223 | 0.0 | 2.6 | 0.00 | 0.00 | 0.00 | 79 | 1013.5 |
| 20260510053936 | 60 | 223 | 0.0 | 2.6 | 0.00 | 0.00 | 0.00 | 79 | 1013.5 |
| 20260510053834 | 60 | 223 | 0.0 | 2.6 | 0.00 | 0.00 | 0.00 | 80 | 1013.5 |
| 20260510053733 | 60 | 223 | 0.0 | 2.6 | 0.00 | 0.00 | 0.00 | 80 | 1014.0 |
| 20260510053631 | 60 | 223 | 0.0 | 2.6 | 0.00 | 0.00 | 0.00 | 80 | 1013.5 |
| 20260510053532 | 60 | 223 | 0.0 | 2.6 | 0.00 | 0.00 | 0.00 | 80 | 1013.5 |
| 20260510053428 | 60 | 223 | 0.0 | 2.6 | 0.00 | 0.00 | 0.00 | 80 | 1013.4 |
| 20260510053330 | 60 | 223 | 0.0 | 3.5 | 0.00 | 0.00 | 0.00 | 80 | 1013.5 |
| 20260510053227 | 60 | 223 | 0.0 | 3.5 | 0.00 | 0.00 | 0.00 | 80 | 1013.5 |
| 20260510053125 | 60 | 223 | 0.9 | 3.5 | 0.00 | 0.00 | 0.00 | 80 | 1013.5 |
| 20260510053025 | 60 | 223 | 0.9 | 3.5 | 0.00 | 0.00 | 0.00 | 80 | 1013.5 |
| 20260510052924 | 60 | 223 | 0.9 | 3.5 | 0.00 | 0.00 | 0.00 | 80 | 1013.5 |
| 20260510052826 | 60 | 223 | 0.9 | 3.5 | 0.00 | 0.00 | 0.00 | 80 | 1013.5 |
| 20260510052724 | 60 | 223 | 0.9 | 3.5 | 0.00 | 0.00 | 0.00 | 80 | 1013.4 |
| 20260510052621 | 60 | 223 | 0.9 | 3.5 | 0.00 | 0.00 | 0.00 | 80 | 1013.5 |
| 20260510052515 | 60 | 223 | 0.9 | 3.5 | 0.00 | 0.00 | 0.00 | 80 | 1013.5 |
| 20260510052414 | 60 | 221 | 0.9 | 3.5 | 0.00 | 0.00 | 0.00 | 79 | 1013.5 |
| 20260510052315 | 60 | 237 | 0.9 | 3.5 | 0.00 | 0.00 | 0.00 | 80 | 1013.5 |
| 20260510052215 | 60 | 330 | 0.9 | 3.5 | 0.00 | 0.00 | 0.00 | 80 | 1013.5 |
| 20260510052115 | 60 | 290 | 0.0 | 3.5 | 0.00 | 0.00 | 0.00 | 80 | 1013.4 |
| 20260510052014 | 60 | 290 | 0.0 | 3.5 | 0.00 | 0.00 | 0.00 | 80 | 1013.5 |
| 20260510051913 | 60 | 290 | 0.0 | 3.5 | 0.00 | 0.00 | 0.00 | 80 | 1013.5 |
| 20260510051812 | 60 | 290 | 0.0 | 3.5 | 0.00 | 0.00 | 0.00 | 80 | 1013.5 |
| 20260510051712 | 60 | 290 | 0.0 | 3.5 | 0.00 | 0.00 | 0.00 | 80 | 1013.5 |
| 20260510051610 | 60 | 299 | 0.0 | 3.5 | 0.00 | 0.00 | 0.00 | 80 | 1013.4 |
| 20260510051505 | 60 | 252 | 0.0 | 3.5 | 0.00 | 0.00 | 0.00 | 81 | 1013.4 |
| 20260510051405 | 60 | 264 | 0.0 | 1.7 | 0.00 | 0.00 | 0.00 | 81 | 1013.4 |
| 20260510051303 | 60 | 264 | 0.0 | 1.7 | 0.00 | 0.00 | 0.00 | 81 | 1013.4 |
| 20260510051203 | 60 | 264 | 0.0 | 1.7 | 0.00 | 0.00 | 0.00 | 82 | 1013.5 |
| 20260510051104 | 60 | 264 | 0.0 | 1.7 | 0.00 | 0.00 | 0.00 | 82 | 1013.7 |
| 20260510051002 | 60 | 264 | 0.9 | 1.7 | 0.00 | 0.00 | 0.00 | 82 | 1013.5 |
| 20260510050902 | 60 | 264 | 0.9 | 1.7 | 0.00 | 0.00 | 0.00 | 82 | 1013.7 |
| 20260510050802 | 60 | 263 | 0.9 | 1.7 | 0.00 | 0.00 | 0.00 | 83 | 1013.7 |
| 20260510050703 | 60 | 263 | 0.9 | 1.7 | 0.00 | 0.00 | 0.00 | 83 | 1013.7 |
| 20260510050603 | 60 | 263 | 0.9 | 1.7 | 0.00 | 0.00 | 0.00 | 83 | 1013.7 |
| 20260510050502 | 60 | 263 | 0.9 | 1.7 | 0.00 | 0.00 | 0.00 | 83 | 1013.7 |
| 20260510050403 | 60 | 263 | 0.9 | 1.7 | 0.00 | 0.00 | 0.00 | 83 | 1013.7 |
| 20260510050302 | 60 | 263 | 0.9 | 1.7 | 0.00 | 0.00 | 0.00 | 84 | 1013.8 |
| 20260510050201 | 60 | 263 | 0.9 | 1.7 | 0.00 | 0.00 | 0.00 | 84 | 1013.7 |
| 20260510050058 | 60 | 263 | 0.9 | 1.7 | 0.00 | 0.00 | 0.00 | 84 | 1013.8 |
| 20260510045959 | 60 | 263 | 0.9 | 1.7 | 0.00 | 0.00 | 0.00 | 84 | 1013.8 |
| 20260510045859 | 60 | 263 | 0.0 | 1.7 | 0.00 | 0.00 | 0.00 | 84 | 1013.9 |
| 20260510045759 | 60 | 263 | 0.0 | 1.7 | 0.00 | 0.00 | 0.00 | 85 | 1013.8 |
| 20260510045659 | 60 | 263 | 0.0 | 1.7 | 0.00 | 0.00 | 0.00 | 85 | 1013.8 |
| 20260510045559 | 60 | 263 | 0.0 | 1.7 | 0.00 | 0.00 | 0.00 | 85 | 1013.9 |
| 20260510045500 | 60 | 263 | 0.0 | 1.7 | 0.00 | 0.00 | 0.00 | 85 | 1013.8 |
| 20260510045358 | 60 | 263 | 0.0 | 1.7 | 0.00 | 0.00 | 0.00 | 86 | 1013.7 |
| 20260510045258 | 60 | 262 | 0.0 | 1.7 | 0.00 | 0.00 | 0.00 | 86 | 1013.7 |
| 20260510045159 | 60 | 262 | 0.0 | 1.7 | 0.00 | 0.00 | 0.00 | 86 | 1013.7 |
| 20260510045058 | 60 | 262 | 0.0 | 1.7 | 0.00 | 0.00 | 0.00 | 86 | 1013.5 |
| 20260510044958 | 60 | 261 | 0.0 | 1.7 | 0.00 | 0.00 | 0.00 | 87 | 1013.5 |
| 20260510044900 | 61 | 261 | 0.0 | 1.7 | 0.00 | 0.00 | 0.00 | 87 | 1013.7 |
| 20260510044759 | 61 | 261 | 0.0 | 1.7 | 0.00 | 0.00 | 0.00 | 87 | 1013.5 |
| 20260510044700 | 61 | 261 | 0.0 | 1.7 | 0.00 | 0.00 | 0.00 | 87 | 1013.7 |
| 20260510044558 | 61 | 261 | 0.0 | 1.7 | 0.00 | 0.00 | 0.00 | 87 | 1013.5 |
| 20260510044500 | 61 | 261 | 0.0 | 1.7 | 0.00 | 0.00 | 0.00 | 87 | 1013.5 |
| 20260510044358 | 61 | 261 | 0.0 | 1.7 | 0.00 | 0.00 | 0.00 | 87 | 1013.7 |
| 20260510044259 | 61 | 261 | 0.0 | 1.7 | 0.00 | 0.00 | 0.00 | 87 | 1013.7 |
| 20260510044200 | 61 | 261 | 0.0 | 1.7 | 0.00 | 0.00 | 0.00 | 87 | 1013.4 |
| 20260510044059 | 61 | 261 | 0.0 | 1.7 | 0.00 | 0.00 | 0.00 | 87 | 1013.5 |
| 20260510043958 | 61 | 261 | 0.0 | 1.7 | 0.00 | 0.00 | 0.00 | 88 | 1013.5 |
| 20260510043859 | 61 | 261 | 0.0 | 1.7 | 0.00 | 0.00 | 0.00 | 88 | 1013.5 |
| 20260510043800 | 61 | 261 | 0.0 | 1.7 | 0.00 | 0.00 | 0.00 | 88 | 1013.4 |
| 20260510043656 | 61 | 261 | 0.9 | 1.7 | 0.00 | 0.00 | 0.00 | 88 | 1013.4 |
| 20260510043554 | 61 | 261 | 0.9 | 1.7 | 0.00 | 0.00 | 0.00 | 88 | 1013.7 |
| 20260510043454 | 61 | 261 | 0.9 | 1.7 | 0.00 | 0.00 | 0.00 | 88 | 1013.7 |
| 20260510043355 | 61 | 261 | 0.9 | 1.7 | 0.00 | 0.00 | 0.00 | 88 | 1013.7 |
| 20260510043255 | 61 | 261 | 0.9 | 1.7 | 0.00 | 0.00 | 0.00 | 88 | 1013.7 |
| 20260510043155 | 61 | 261 | 0.0 | 1.7 | 0.00 | 0.00 | 0.00 | 88 | 1013.8 |
| 20260510043054 | 61 | 261 | 0.0 | 1.7 | 0.00 | 0.00 | 0.00 | 88 | 1013.8 |
| 20260510042955 | 61 | 284 | 0.0 | 1.7 | 0.00 | 0.00 | 0.00 | 88 | 1013.8 |
| 20260510042855 | 61 | 285 | 0.9 | 2.6 | 0.00 | 0.00 | 0.00 | 88 | 1013.8 |
| 20260510042755 | 61 | 285 | 0.0 | 2.6 | 0.00 | 0.00 | 0.00 | 88 | 1013.8 |
| 20260510042656 | 61 | 285 | 0.9 | 2.6 | 0.00 | 0.00 | 0.00 | 87 | 1013.8 |
| 20260510042555 | 61 | 286 | 0.9 | 3.5 | 0.00 | 0.00 | 0.00 | 87 | 1013.8 |
| 20260510042454 | 61 | 286 | 0.9 | 3.5 | 0.00 | 0.00 | 0.00 | 87 | 1013.9 |
| 20260510042354 | 61 | 286 | 0.9 | 3.5 | 0.00 | 0.00 | 0.00 | 88 | 1013.8 |
| 20260510042255 | 61 | 286 | 0.9 | 3.5 | 0.00 | 0.00 | 0.00 | 88 | 1013.8 |
| 20260510042155 | 61 | 286 | 0.9 | 3.5 | 0.00 | 0.00 | 0.00 | 88 | 1013.9 |
| 20260510042055 | 61 | 286 | 0.9 | 3.5 | 0.00 | 0.00 | 0.00 | 88 | 1013.9 |
| 20260510041955 | 61 | 286 | 0.9 | 3.5 | 0.00 | 0.00 | 0.00 | 88 | 1013.8 |
| 20260510041854 | 61 | 240 | 0.9 | 3.5 | 0.00 | 0.00 | 0.00 | 88 | 1013.8 |
| 20260510041756 | 61 | 186 | 0.9 | 3.5 | 0.00 | 0.00 | 0.00 | 88 | 1013.8 |
| 20260510041654 | 61 | 186 | 0.0 | 3.5 | 0.00 | 0.00 | 0.00 | 88 | 1013.7 |
| 20260510041554 | 61 | 196 | 0.0 | 3.5 | 0.00 | 0.00 | 0.00 | 88 | 1013.5 |
| 20260510041455 | 61 | 286 | 0.0 | 1.7 | 0.00 | 0.00 | 0.00 | 88 | 1013.7 |
| 20260510041355 | 61 | 286 | 0.0 | 1.7 | 0.00 | 0.00 | 0.00 | 88 | 1013.7 |
| 20260510041254 | 61 | 286 | 0.0 | 1.7 | 0.00 | 0.00 | 0.00 | 88 | 1013.7 |
| 20260510041156 | 61 | 285 | 0.0 | 1.7 | 0.00 | 0.00 | 0.00 | 88 | 1013.8 |
| 20260510041055 | 61 | 286 | 0.0 | 1.7 | 0.00 | 0.00 | 0.00 | 87 | 1013.7 |
| 20260510040954 | 61 | 315 | 0.0 | 1.7 | 0.00 | 0.00 | 0.00 | 87 | 1013.8 |
| 20260510040856 | 61 | 313 | 0.0 | 1.7 | 0.00 | 0.00 | 0.00 | 87 | 1013.8 |
| 20260510040754 | 61 | 316 | 0.0 | 1.7 | 0.00 | 0.00 | 0.00 | 87 | 1013.9 |
| 20260510040654 | 61 | 182 | 0.0 | 1.7 | 0.00 | 0.00 | 0.00 | 87 | 1013.9 |
| 20260510040554 | 61 | 184 | 0.0 | 1.7 | 0.00 | 0.00 | 0.00 | 87 | 1013.8 |
| 20260510040456 | 61 | 184 | 0.0 | 1.7 | 0.00 | 0.00 | 0.00 | 87 | 1013.8 |
| 20260510040351 | 61 | 184 | 0.0 | 2.6 | 0.00 | 0.00 | 0.00 | 87 | 1013.7 |
| 20260510040250 | 61 | 184 | 0.0 | 2.6 | 0.00 | 0.00 | 0.00 | 87 | 1013.8 |
| 20260510040151 | 61 | 184 | 0.0 | 2.6 | 0.00 | 0.00 | 0.00 | 87 | 1013.7 |
| 20260510040052 | 61 | 184 | 0.9 | 2.6 | 0.00 | 0.00 | 0.00 | 87 | 1013.8 |
| 20260510035952 | 61 | 184 | 0.9 | 2.6 | 0.00 | 0.00 | 0.00 | 87 | 1013.8 |
| 20260510035848 | 61 | 184 | 0.9 | 2.6 | 0.00 | 0.00 | 0.00 | 87 | 1013.8 |
| 20260510035748 | 61 | 184 | 0.0 | 2.6 | 0.00 | 0.00 | 0.00 | 87 | 1013.5 |
| 20260510035646 | 61 | 184 | 0.0 | 2.6 | 0.00 | 0.00 | 0.00 | 87 | 1013.7 |
| 20260510035547 | 61 | 184 | 0.0 | 2.6 | 0.00 | 0.00 | 0.00 | 87 | 1013.7 |
| 20260510035447 | 61 | 186 | 0.0 | 1.7 | 0.00 | 0.00 | 0.00 | 87 | 1013.8 |
| 20260510035348 | 61 | 189 | 0.0 | 1.7 | 0.00 | 0.00 | 0.00 | 87 | 1013.7 |
| 20260510035244 | 61 | 189 | 0.0 | 1.7 | 0.00 | 0.00 | 0.00 | 87 | 1013.7 |
| 20260510035145 | 61 | 189 | 0.0 | 1.7 | 0.00 | 0.00 | 0.00 | 87 | 1013.8 |
| 20260510035042 | 61 | 189 | 0.0 | 1.7 | 0.00 | 0.00 | 0.00 | 87 | 1013.7 |
| 20260510034944 | 61 | 189 | 0.0 | 1.7 | 0.00 | 0.00 | 0.00 | 87 | 1013.7 |
| 20260510034842 | 61 | 190 | 0.0 | 1.7 | 0.00 | 0.00 | 0.00 | 87 | 1013.7 |
| 20260510034739 | 61 | 193 | 0.0 | 1.7 | 0.00 | 0.00 | 0.00 | 87 | 1013.7 |
| 20260510034640 | 61 | 193 | 0.0 | 1.7 | 0.00 | 0.00 | 0.00 | 87 | 1013.8 |
| 20260510034537 | 61 | 193 | 0.0 | 1.7 | 0.00 | 0.00 | 0.00 | 87 | 1013.7 |
| 20260510034438 | 61 | 193 | 0.0 | 1.7 | 0.00 | 0.00 | 0.00 | 87 | 1013.7 |
| 20260510034335 | 61 | 193 | 0.0 | 1.7 | 0.00 | 0.00 | 0.00 | 87 | 1013.7 |
| 20260510034234 | 61 | 193 | 0.9 | 1.7 | 0.00 | 0.00 | 0.00 | 87 | 1013.8 |
| 20260510034131 | 61 | 193 | 0.9 | 1.7 | 0.00 | 0.00 | 0.00 | 87 | 1013.7 |
| 20260510034032 | 61 | 193 | 0.9 | 1.7 | 0.00 | 0.00 | 0.00 | 87 | 1013.8 |
| 20260510033932 | 61 | 193 | 0.9 | 1.7 | 0.00 | 0.00 | 0.00 | 87 | 1013.7 |
| 20260510033832 | 61 | 193 | 0.9 | 1.7 | 0.00 | 0.00 | 0.00 | 87 | 1013.7 |
| 20260510033732 | 61 | 194 | 0.9 | 1.7 | 0.00 | 0.00 | 0.00 | 87 | 1013.7 |
| 20260510033627 | 61 | 194 | 0.9 | 1.7 | 0.00 | 0.00 | 0.00 | 87 | 1013.7 |
| 20260510033526 | 61 | 194 | 0.9 | 1.7 | 0.00 | 0.00 | 0.00 | 87 | 1013.7 |
| 20260510033426 | 61 | 194 | 0.9 | 1.7 | 0.00 | 0.00 | 0.00 | 87 | 1013.7 |
| 20260510033328 | 61 | 194 | 0.9 | 1.7 | 0.00 | 0.00 | 0.00 | 87 | 1013.9 |
| 20260510033225 | 61 | 194 | 0.9 | 1.7 | 0.00 | 0.00 | 0.00 | 87 | 1013.8 |
| 20260510033126 | 61 | 194 | 0.0 | 1.7 | 0.00 | 0.00 | 0.00 | 87 | 1013.7 |
| 20260510033023 | 61 | 194 | 0.0 | 1.7 | 0.00 | 0.00 | 0.00 | 87 | 1013.8 |
| 20260510032924 | 61 | 194 | 0.0 | 1.7 | 0.00 | 0.00 | 0.00 | 87 | 1013.8 |
| 20260510032822 | 61 | 194 | 0.0 | 1.7 | 0.00 | 0.00 | 0.00 | 87 | 1013.8 |
| 20260510032719 | 61 | 194 | 0.0 | 2.6 | 0.00 | 0.00 | 0.00 | 87 | 1013.8 |
| 20260510032615 | 61 | 194 | 0.0 | 2.6 | 0.00 | 0.00 | 0.00 | 87 | 1013.7 |
| 20260510032515 | 61 | 194 | 0.0 | 2.6 | 0.00 | 0.00 | 0.00 | 87 | 1013.8 |
| 20260510032415 | 61 | 194 | 0.0 | 2.6 | 0.00 | 0.00 | 0.00 | 87 | 1013.8 |
| 20260510032315 | 61 | 194 | 0.9 | 2.6 | 0.00 | 0.00 | 0.00 | 87 | 1013.7 |
| 20260510032216 | 61 | 194 | 0.9 | 2.6 | 0.00 | 0.00 | 0.00 | 87 | 1013.8 |
| 20260510032112 | 61 | 194 | 0.9 | 2.6 | 0.00 | 0.00 | 0.00 | 87 | 1013.8 |
| 20260510032012 | 61 | 194 | 0.9 | 2.6 | 0.00 | 0.00 | 0.00 | 87 | 1013.8 |
| 20260510031913 | 61 | 194 | 0.9 | 2.6 | 0.00 | 0.00 | 0.00 | 87 | 1013.8 |
| 20260510031813 | 61 | 196 | 0.9 | 2.6 | 0.00 | 0.00 | 0.00 | 87 | 1013.8 |
| 20260510031712 | 61 | 157 | 0.9 | 1.7 | 0.00 | 0.00 | 0.00 | 87 | 1013.8 |
| 20260510031613 | 61 | 157 | 0.0 | 1.7 | 0.00 | 0.00 | 0.00 | 87 | 1013.8 |
| 20260510031514 | 61 | 157 | 0.0 | 1.7 | 0.00 | 0.00 | 0.00 | 87 | 1013.8 |
| 20260510031410 | 61 | 157 | 0.0 | 1.7 | 0.00 | 0.00 | 0.00 | 87 | 1013.7 |
| 20260510031311 | 61 | 157 | 0.0 | 1.7 | 0.00 | 0.00 | 0.00 | 87 | 1013.8 |
| 20260510031210 | 61 | 186 | 0.0 | 0.0 | 0.00 | 0.00 | 0.00 | 87 | 1013.8 |
| 20260510031112 | 61 | 186 | 0.0 | 0.0 | 0.00 | 0.00 | 0.00 | 87 | 1013.8 |
| 20260510031012 | 61 | 186 | 0.0 | 0.9 | 0.00 | 0.00 | 0.00 | 87 | 1013.8 |
| 20260510030905 | 61 | 186 | 0.0 | 0.9 | 0.00 | 0.00 | 0.00 | 87 | 1013.7 |
| 20260510030805 | 61 | 186 | 0.0 | 0.9 | 0.00 | 0.00 | 0.00 | 87 | 1013.8 |
| 20260510030705 | 61 | 186 | 0.0 | 0.9 | 0.00 | 0.00 | 0.00 | 87 | 1013.8 |
| 20260510030604 | 61 | 186 | 0.0 | 0.9 | 0.00 | 0.00 | 0.00 | 88 | 1013.8 |
| 20260510030505 | 61 | 186 | 0.0 | 0.9 | 0.00 | 0.00 | 0.00 | 88 | 1013.8 |
| 20260510030403 | 61 | 186 | 0.0 | 0.9 | 0.00 | 0.00 | 0.00 | 88 | 1013.8 |
| 20260510030303 | 61 | 186 | 0.0 | 0.9 | 0.00 | 0.00 | 0.00 | 88 | 1013.9 |
| 20260510030204 | 61 | 186 | 0.0 | 0.9 | 0.00 | 0.00 | 0.00 | 88 | 1013.8 |
| 20260510030103 | 61 | 186 | 0.0 | 1.7 | 0.00 | 0.00 | 0.00 | 88 | 1013.9 |
| 20260510030004 | 61 | 186 | 0.0 | 1.7 | 0.00 | 0.00 | 0.00 | 88 | 1013.9 |
| 20260510025904 | 61 | 186 | 0.0 | 1.7 | 0.00 | 0.00 | 0.00 | 88 | 1013.8 |
| 20260510025800 | 61 | 186 | 0.0 | 1.7 | 0.00 | 0.00 | 0.00 | 88 | 1013.9 |
| 20260510025700 | 61 | 186 | 0.0 | 1.7 | 0.00 | 0.00 | 0.00 | 88 | 1013.9 |
| 20260510025601 | 61 | 186 | 0.0 | 1.7 | 0.00 | 0.00 | 0.00 | 88 | 1013.9 |
| 20260510025502 | 61 | 186 | 0.0 | 1.7 | 0.00 | 0.00 | 0.00 | 88 | 1013.9 |
| 20260510025400 | 61 | 186 | 0.0 | 1.7 | 0.00 | 0.00 | 0.00 | 88 | 1013.8 |
| 20260510025256 | 61 | 186 | 0.0 | 1.7 | 0.00 | 0.00 | 0.00 | 88 | 1013.8 |
| 20260510025156 | 61 | 186 | 0.0 | 1.7 | 0.00 | 0.00 | 0.00 | 88 | 1013.9 |
| 20260510025055 | 61 | 186 | 0.0 | 1.7 | 0.00 | 0.00 | 0.00 | 88 | 1013.9 |
| 20260510024953 | 61 | 186 | 0.0 | 1.7 | 0.00 | 0.00 | 0.00 | 88 | 1013.9 |
| 20260510024854 | 61 | 186 | 0.0 | 1.7 | 0.00 | 0.00 | 0.00 | 88 | 1013.9 |
| 20260510024750 | 61 | 186 | 0.0 | 1.7 | 0.00 | 0.00 | 0.00 | 88 | 1013.8 |
| 20260510024652 | 61 | 186 | 0.0 | 1.7 | 0.00 | 0.00 | 0.00 | 88 | 1013.9 |
| 20260510024549 | 61 | 173 | 0.0 | 0.9 | 0.00 | 0.00 | 0.00 | 88 | 1013.9 |
| 20260510024450 | 61 | 173 | 0.0 | 0.9 | 0.00 | 0.00 | 0.00 | 88 | 1013.8 |
| 20260510024348 | 61 | 173 | 0.0 | 0.9 | 0.00 | 0.00 | 0.00 | 88 | 1013.8 |
| 20260510024244 | 61 | 173 | 0.0 | 0.9 | 0.00 | 0.00 | 0.00 | 88 | 1013.8 |
| 20260510024143 | 61 | 173 | 0.0 | 1.7 | 0.00 | 0.00 | 0.00 | 88 | 1013.8 |
| 20260510024043 | 61 | 173 | 0.0 | 1.7 | 0.00 | 0.00 | 0.00 | 88 | 1013.7 |
| 20260510023942 | 61 | 173 | 0.0 | 1.7 | 0.00 | 0.00 | 0.00 | 88 | 1013.7 |
| 20260510023843 | 61 | 173 | 0.0 | 1.7 | 0.00 | 0.00 | 0.00 | 88 | 1013.7 |
| 20260510023742 | 61 | 173 | 0.0 | 1.7 | 0.00 | 0.00 | 0.00 | 88 | 1013.5 |
| 20260510023634 | 62 | 173 | 0.0 | 1.7 | 0.00 | 0.00 | 0.00 | 88 | 1013.7 |
| 20260510023536 | 61 | 173 | 0.0 | 1.7 | 0.00 | 0.00 | 0.00 | 88 | 1013.7 |
| 20260510023436 | 62 | 173 | 0.0 | 1.7 | 0.00 | 0.00 | 0.00 | 88 | 1013.5 |
| 20260510023336 | 62 | 173 | 0.0 | 1.7 | 0.00 | 0.00 | 0.00 | 88 | 1013.5 |
| 20260510023236 | 62 | 173 | 0.0 | 1.7 | 0.00 | 0.00 | 0.00 | 88 | 1013.5 |
| 20260510023130 | 62 | 173 | 0.0 | 1.7 | 0.00 | 0.00 | 0.00 | 88 | 1013.5 |
| 20260510023029 | 62 | 173 | 0.0 | 1.7 | 0.00 | 0.00 | 0.00 | 88 | 1013.7 |
| 20260510022928 | 62 | 173 | 0.0 | 1.7 | 0.00 | 0.00 | 0.00 | 88 | 1013.7 |
| 20260510022830 | 62 | 173 | 0.9 | 2.6 | 0.00 | 0.00 | 0.00 | 88 | 1013.7 |
| 20260510022728 | 62 | 173 | 0.9 | 2.6 | 0.00 | 0.00 | 0.00 | 88 | 1013.7 |
| 20260510022627 | 62 | 175 | 0.9 | 2.6 | 0.00 | 0.00 | 0.00 | 88 | 1013.5 |
| 20260510022526 | 62 | 175 | 0.9 | 2.6 | 0.00 | 0.00 | 0.00 | 88 | 1013.7 |
| 20260510022326 | 62 | 175 | 1.7 | 2.6 | 0.00 | 0.00 | 0.00 | 88 | 1013.5 |
| 20260510022224 | 62 | 175 | 1.7 | 3.5 | 0.00 | 0.00 | 0.00 | 88 | 1013.4 |
| 20260510022124 | 62 | 175 | 1.7 | 4.3 | 0.00 | 0.00 | 0.00 | 88 | 1013.4 |
| 20260510022024 | 62 | 175 | 1.7 | 4.3 | 0.00 | 0.00 | 0.00 | 88 | 1013.4 |
| 20260510021922 | 62 | 175 | 1.7 | 4.3 | 0.00 | 0.00 | 0.00 | 88 | 1013.4 |
| 20260510021823 | 62 | 175 | 1.7 | 4.3 | 0.00 | 0.00 | 0.00 | 88 | 1013.4 |
| 20260510021723 | 62 | 176 | 1.7 | 4.3 | 0.00 | 0.00 | 0.00 | 88 | 1013.4 |
| 20260510021622 | 62 | 176 | 1.7 | 4.3 | 0.00 | 0.00 | 0.00 | 88 | 1013.4 |
| 20260510021522 | 62 | 182 | 1.7 | 4.3 | 0.00 | 0.00 | 0.00 | 88 | 1013.4 |
| 20260510021424 | 62 | 187 | 1.7 | 4.3 | 0.00 | 0.00 | 0.00 | 88 | 1013.4 |
| 20260510021322 | 62 | 187 | 1.7 | 4.3 | 0.00 | 0.00 | 0.00 | 88 | 1013.4 |
| 20260510021223 | 62 | 195 | 1.7 | 4.3 | 0.00 | 0.00 | 0.00 | 88 | 1013.4 |
| 20260510021121 | 62 | 166 | 1.7 | 4.3 | 0.00 | 0.00 | 0.00 | 88 | 1013.4 |
| 20260510021022 | 62 | 165 | 1.7 | 4.3 | 0.00 | 0.00 | 0.00 | 88 | 1013.5 |
| 20260510020921 | 62 | 155 | 0.9 | 2.6 | 0.00 | 0.00 | 0.00 | 88 | 1013.3 |
| 20260510020821 | 62 | 155 | 0.9 | 2.6 | 0.00 | 0.00 | 0.00 | 87 | 1013.3 |
| 20260510020717 | 62 | 155 | 0.9 | 2.6 | 0.00 | 0.00 | 0.00 | 87 | 1013.3 |
| 20260510020617 | 62 | 155 | 0.9 | 2.6 | 0.00 | 0.00 | 0.00 | 87 | 1013.4 |
| 20260510020517 | 62 | 156 | 0.9 | 2.6 | 0.00 | 0.00 | 0.00 | 87 | 1013.4 |
| 20260510020417 | 62 | 155 | 0.9 | 2.6 | 0.00 | 0.00 | 0.00 | 87 | 1013.3 |
| 20260510020317 | 62 | 155 | 0.9 | 2.6 | 0.00 | 0.00 | 0.00 | 87 | 1013.2 |
| 20260510020219 | 62 | 155 | 0.9 | 2.6 | 0.00 | 0.00 | 0.00 | 87 | 1013.2 |
| 20260510020117 | 62 | 155 | 0.9 | 2.6 | 0.00 | 0.00 | 0.00 | 87 | 1013.2 |
| 20260510020018 | 62 | 155 | 1.7 | 4.3 | 0.00 | 0.00 | 0.00 | 87 | 1013.2 |
| 20260510015917 | 62 | 155 | 1.7 | 4.3 | 0.00 | 0.00 | 0.00 | 87 | 1013.2 |
| 20260510015716 | 62 | 155 | 1.7 | 4.3 | 0.00 | 0.00 | 0.00 | 87 | 1013.1 |
| 20260510015616 | 62 | 153 | 1.7 | 4.3 | 0.00 | 0.00 | 0.00 | 87 | 1013.2 |
| 20260510015518 | 62 | 153 | 1.7 | 4.3 | 0.00 | 0.00 | 0.00 | 87 | 1013.1 |
| 20260510015416 | 62 | 153 | 1.7 | 4.3 | 0.00 | 0.00 | 0.00 | 87 | 1013.0 |
| 20260510015316 | 62 | 157 | 1.7 | 4.3 | 0.00 | 0.00 | 0.00 | 87 | 1013.0 |
| 20260510015216 | 62 | 157 | 1.7 | 4.3 | 0.00 | 0.00 | 0.00 | 87 | 1013.0 |
| 20260510015116 | 62 | 157 | 1.7 | 4.3 | 0.00 | 0.00 | 0.00 | 87 | 1012.9 |
| 20260510015016 | 62 | 163 | 1.7 | 4.3 | 0.00 | 0.00 | 0.00 | 87 | 1012.9 |
| 20260510014916 | 62 | 188 | 1.7 | 5.2 | 0.00 | 0.00 | 0.00 | 87 | 1012.9 |
| 20260510014817 | 62 | 188 | 1.7 | 5.2 | 0.00 | 0.00 | 0.00 | 87 | 1012.9 |
| 20260510014716 | 62 | 188 | 1.7 | 5.2 | 0.00 | 0.00 | 0.00 | 87 | 1012.8 |
| 20260510014617 | 62 | 189 | 1.7 | 5.2 | 0.00 | 0.00 | 0.00 | 87 | 1012.8 |
| 20260510014517 | 62 | 191 | 1.7 | 5.2 | 0.00 | 0.00 | 0.00 | 87 | 1012.8 |
| 20260510014417 | 62 | 171 | 1.7 | 5.2 | 0.00 | 0.00 | 0.00 | 87 | 1012.8 |
| 20260510014317 | 62 | 174 | 1.7 | 5.2 | 0.00 | 0.00 | 0.00 | 87 | 1012.8 |
| 20260510014217 | 62 | 151 | 1.7 | 5.2 | 0.00 | 0.00 | 0.00 | 86 | 1012.8 |
| 20260510014116 | 62 | 151 | 0.9 | 5.2 | 0.00 | 0.00 | 0.00 | 86 | 1012.8 |
| 20260510014016 | 62 | 150 | 0.9 | 5.2 | 0.00 | 0.00 | 0.00 | 86 | 1012.8 |
| 20260510013916 | 62 | 186 | 0.9 | 3.5 | 0.00 | 0.00 | 0.00 | 86 | 1012.8 |
| 20260510013817 | 62 | 186 | 0.9 | 3.5 | 0.00 | 0.00 | 0.00 | 86 | 1012.8 |
| 20260510013716 | 62 | 187 | 0.9 | 5.2 | 0.00 | 0.00 | 0.00 | 86 | 1012.9 |
| 20260510013616 | 62 | 188 | 0.9 | 5.2 | 0.00 | 0.00 | 0.00 | 86 | 1012.8 |
| 20260510013517 | 62 | 188 | 0.9 | 5.2 | 0.00 | 0.00 | 0.00 | 86 | 1012.8 |
| 20260510013413 | 63 | 195 | 0.9 | 5.2 | 0.00 | 0.00 | 0.00 | 86 | 1012.8 |
| 20260510013313 | 63 | 197 | 1.7 | 5.2 | 0.00 | 0.00 | 0.00 | 86 | 1012.8 |
| 20260510013212 | 62 | 197 | 1.7 | 5.2 | 0.00 | 0.00 | 0.00 | 86 | 1012.8 |
| 20260510013113 | 63 | 197 | 1.7 | 5.2 | 0.00 | 0.00 | 0.00 | 86 | 1012.8 |
| 20260510013012 | 63 | 196 | 1.7 | 5.2 | 0.00 | 0.00 | 0.00 | 86 | 1012.7 |
| 20260510012913 | 63 | 198 | 1.7 | 5.2 | 0.00 | 0.00 | 0.00 | 86 | 1012.7 |
| 20260510012813 | 63 | 196 | 2.6 | 5.2 | 0.00 | 0.00 | 0.00 | 86 | 1012.7 |
| 20260510012712 | 63 | 201 | 2.6 | 5.2 | 0.00 | 0.00 | 0.00 | 86 | 1012.6 |
| 20260510012612 | 63 | 188 | 1.7 | 5.2 | 0.00 | 0.00 | 0.00 | 86 | 1012.6 |
| 20260510012513 | 63 | 178 | 1.7 | 5.2 | 0.00 | 0.00 | 0.00 | 86 | 1012.7 |
| 20260510012413 | 63 | 229 | 2.6 | 5.2 | 0.00 | 0.00 | 0.00 | 86 | 1012.6 |
| 20260510012313 | 63 | 168 | 2.6 | 6.1 | 0.00 | 0.00 | 0.00 | 86 | 1012.7 |
| 20260510012212 | 63 | 178 | 2.6 | 6.1 | 0.00 | 0.00 | 0.00 | 86 | 1012.7 |
| 20260510012114 | 63 | 178 | 2.6 | 6.1 | 0.00 | 0.00 | 0.00 | 86 | 1012.6 |
| 20260510012013 | 63 | 173 | 2.6 | 6.1 | 0.00 | 0.00 | 0.00 | 86 | 1012.7 |
| 20260510011913 | 63 | 183 | 2.6 | 6.1 | 0.00 | 0.00 | 0.00 | 86 | 1012.6 |
| 20260510011813 | 63 | 177 | 2.6 | 7.0 | 0.00 | 0.00 | 0.00 | 86 | 1012.5 |
| 20260510011713 | 63 | 155 | 2.6 | 7.0 | 0.00 | 0.00 | 0.00 | 86 | 1012.5 |
| 20260510011612 | 63 | 167 | 2.6 | 7.0 | 0.00 | 0.00 | 0.00 | 85 | 1012.6 |
| 20260510011514 | 63 | 198 | 2.6 | 7.0 | 0.00 | 0.00 | 0.00 | 85 | 1012.5 |
| 20260510011412 | 63 | 135 | 1.7 | 7.0 | 0.00 | 0.00 | 0.00 | 85 | 1012.4 |
| 20260510011312 | 63 | 178 | 1.7 | 7.0 | 0.00 | 0.00 | 0.00 | 85 | 1012.5 |
| 20260510011212 | 63 | 138 | 2.6 | 7.0 | 0.00 | 0.00 | 0.00 | 85 | 1012.5 |
| 20260510011113 | 63 | 168 | 2.6 | 7.0 | 0.00 | 0.00 | 0.00 | 85 | 1012.5 |
| 20260510011012 | 63 | 168 | 2.6 | 7.0 | 0.00 | 0.00 | 0.00 | 85 | 1012.4 |
| 20260510010913 | 63 | 181 | 1.7 | 7.0 | 0.00 | 0.00 | 0.00 | 85 | 1012.4 |
| 20260510010804 | 63 | 201 | 1.7 | 6.1 | 0.00 | 0.00 | 0.00 | 85 | 1012.3 |
| 20260510010704 | 63 | 157 | 1.7 | 6.1 | 0.00 | 0.00 | 0.00 | 85 | 1012.3 |
| 20260510010605 | 63 | 156 | 1.7 | 6.1 | 0.00 | 0.00 | 0.00 | 85 | 1012.3 |
| 20260510010504 | 63 | 190 | 1.7 | 6.1 | 0.00 | 0.00 | 0.00 | 85 | 1012.3 |
| 20260510010405 | 63 | 178 | 1.7 | 6.1 | 0.00 | 0.00 | 0.00 | 84 | 1012.2 |
| 20260510010305 | 63 | 178 | 1.7 | 6.1 | 0.00 | 0.00 | 0.00 | 84 | 1012.3 |
| 20260510010204 | 63 | 172 | 1.7 | 5.2 | 0.00 | 0.00 | 0.00 | 84 | 1012.2 |
| 20260510010104 | 63 | 165 | 1.7 | 5.2 | 0.00 | 0.00 | 0.00 | 84 | 1012.3 |
| 20260510010005 | 63 | 165 | 1.7 | 5.2 | 0.00 | 0.00 | 0.00 | 84 | 1012.3 |
| 20260510005905 | 63 | 167 | 1.7 | 5.2 | 0.00 | 0.00 | 0.00 | 84 | 1012.2 |
| 20260510005805 | 64 | 179 | 1.7 | 5.2 | 0.00 | 0.00 | 0.00 | 84 | 1012.2 |
| 20260510005704 | 64 | 179 | 1.7 | 5.2 | 0.00 | 0.00 | 0.00 | 84 | 1012.2 |
| 20260510005604 | 63 | 178 | 1.7 | 5.2 | 0.00 | 0.00 | 0.00 | 84 | 1012.1 |
| 20260510005505 | 64 | 178 | 1.7 | 5.2 | 0.00 | 0.00 | 0.00 | 84 | 1012.0 |
| 20260510005404 | 64 | 180 | 1.7 | 5.2 | 0.00 | 0.00 | 0.00 | 84 | 1012.0 |
| 20260510005306 | 64 | 156 | 1.7 | 5.2 | 0.00 | 0.00 | 0.00 | 84 | 1012.1 |
| 20260510005205 | 64 | 181 | 1.7 | 5.2 | 0.00 | 0.00 | 0.00 | 84 | 1012.1 |
| 20260510005104 | 64 | 171 | 1.7 | 5.2 | 0.00 | 0.00 | 0.00 | 84 | 1011.8 |
| 20260510005005 | 64 | 190 | 1.7 | 7.0 | 0.00 | 0.00 | 0.00 | 84 | 1012.0 |
| 20260510004904 | 64 | 177 | 1.7 | 7.0 | 0.00 | 0.00 | 0.00 | 84 | 1012.0 |
| 20260510004805 | 64 | 179 | 1.7 | 7.0 | 0.00 | 0.00 | 0.00 | 84 | 1011.8 |
| 20260510004705 | 64 | 164 | 1.7 | 7.0 | 0.00 | 0.00 | 0.00 | 83 | 1011.8 |
| 20260510004604 | 64 | 165 | 1.7 | 7.0 | 0.00 | 0.00 | 0.00 | 83 | 1011.8 |
| 20260510004505 | 64 | 163 | 1.7 | 7.0 | 0.00 | 0.00 | 0.00 | 83 | 1011.7 |
| 20260510004405 | 64 | 163 | 1.7 | 7.0 | 0.00 | 0.00 | 0.00 | 83 | 1011.8 |
| 20260510004305 | 64 | 163 | 1.7 | 7.0 | 0.00 | 0.00 | 0.00 | 83 | 1011.8 |
| 20260510004205 | 64 | 161 | 1.7 | 7.0 | 0.00 | 0.00 | 0.00 | 83 | 1011.8 |
| 20260510004104 | 64 | 160 | 1.7 | 7.0 | 0.00 | 0.00 | 0.00 | 83 | 1011.8 |
| 20260510004005 | 64 | 202 | 1.7 | 7.0 | 0.00 | 0.00 | 0.00 | 83 | 1011.8 |
| 20260510003905 | 64 | 148 | 1.7 | 4.3 | 0.00 | 0.00 | 0.00 | 83 | 1011.8 |
| 20260510003806 | 64 | 203 | 1.7 | 4.3 | 0.00 | 0.00 | 0.00 | 83 | 1011.7 |
| 20260510003705 | 64 | 213 | 1.7 | 4.3 | 0.00 | 0.00 | 0.00 | 83 | 1011.7 |
| 20260510003606 | 64 | 234 | 1.7 | 4.3 | 0.00 | 0.00 | 0.00 | 83 | 1011.8 |
| 20260510003500 | 64 | 196 | 1.7 | 4.3 | 0.00 | 0.00 | 0.00 | 83 | 1011.7 |
| 20260510003402 | 64 | 196 | 1.7 | 5.2 | 0.00 | 0.00 | 0.00 | 83 | 1011.7 |
| 20260510003300 | 64 | 198 | 1.7 | 5.2 | 0.00 | 0.00 | 0.00 | 82 | 1011.7 |
| 20260510003200 | 64 | 185 | 1.7 | 5.2 | 0.00 | 0.00 | 0.00 | 82 | 1011.7 |
| 20260510003101 | 64 | 184 | 1.7 | 5.2 | 0.00 | 0.00 | 0.00 | 82 | 1011.6 |
| 20260510003003 | 64 | 166 | 1.7 | 5.2 | 0.00 | 0.00 | 0.00 | 82 | 1011.6 |
| 20260510002901 | 64 | 169 | 1.7 | 5.2 | 0.00 | 0.00 | 0.00 | 82 | 1011.7 |
| 20260510002800 | 64 | 169 | 1.7 | 5.2 | 0.00 | 0.00 | 0.00 | 82 | 1011.5 |
| 20260510002700 | 64 | 179 | 1.7 | 5.2 | 0.00 | 0.00 | 0.00 | 82 | 1011.6 |
| 20260510002602 | 64 | 182 | 1.7 | 5.2 | 0.00 | 0.00 | 0.00 | 82 | 1011.6 |
| 20260510002501 | 64 | 182 | 1.7 | 5.2 | 0.00 | 0.00 | 0.00 | 82 | 1011.5 |
| 20260510002401 | 64 | 156 | 1.7 | 5.2 | 0.00 | 0.00 | 0.00 | 82 | 1011.5 |
| 20260510002201 | 65 | 186 | 1.7 | 4.3 | 0.00 | 0.00 | 0.00 | 81 | 1011.5 |
| 20260510002102 | 65 | 180 | 1.7 | 4.3 | 0.00 | 0.00 | 0.00 | 81 | 1011.5 |
| 20260510002001 | 65 | 208 | 1.7 | 4.3 | 0.00 | 0.00 | 0.00 | 81 | 1011.4 |
| 20260510001900 | 65 | 219 | 1.7 | 4.3 | 0.00 | 0.00 | 0.00 | 81 | 1011.5 |
| 20260510001802 | 65 | 169 | 1.7 | 4.3 | 0.00 | 0.00 | 0.00 | 81 | 1011.4 |
| 20260510001700 | 65 | 169 | 1.7 | 4.3 | 0.00 | 0.00 | 0.00 | 81 | 1011.4 |
| 20260510001601 | 65 | 169 | 1.7 | 4.3 | 0.00 | 0.00 | 0.00 | 81 | 1011.3 |
| 20260510001501 | 65 | 167 | 1.7 | 4.3 | 0.00 | 0.00 | 0.00 | 81 | 1011.4 |
| 20260510001402 | 65 | 167 | 1.7 | 4.3 | 0.00 | 0.00 | 0.00 | 81 | 1011.4 |
| 20260510001300 | 65 | 167 | 0.9 | 4.3 | 0.00 | 0.00 | 0.00 | 81 | 1011.4 |
| 20260510001201 | 65 | 167 | 0.9 | 4.3 | 0.00 | 0.00 | 0.00 | 81 | 1011.4 |
| 20260510001100 | 65 | 165 | 0.9 | 3.5 | 0.00 | 0.00 | 0.00 | 80 | 1011.5 |
| 20260510001001 | 65 | 165 | 0.9 | 3.5 | 0.00 | 0.00 | 0.00 | 80 | 1011.4 |
| 20260510000902 | 65 | 165 | 0.9 | 3.5 | 0.00 | 0.00 | 0.00 | 80 | 1011.4 |
| 20260510000800 | 65 | 179 | 0.9 | 3.5 | 0.00 | 0.00 | 0.00 | 80 | 1011.4 |
| 20260510000701 | 65 | 179 | 1.7 | 3.5 | 0.00 | 0.00 | 0.00 | 80 | 1011.3 |
| 20260510000602 | 65 | 179 | 1.7 | 3.5 | 0.00 | 0.00 | 0.00 | 80 | 1011.3 |
| 20260510000500 | 65 | 157 | 1.7 | 3.5 | 0.00 | 0.00 | 0.00 | 80 | 1011.3 |
| 20260510000359 | 65 | 159 | 1.7 | 3.5 | 0.00 | 0.00 | 0.00 | 80 | 1011.3 |
| 20260510000304 | 65 | 159 | 1.7 | 3.5 | 0.00 | 0.00 | 0.00 | 80 | 1011.3 |
| 20260510000155 | 65 | 158 | 1.7 | 4.3 | 0.00 | 0.00 | 0.00 | 80 | 1011.3 |
| 20260510000054 | 65 | 159 | 1.7 | 4.3 | 0.00 | 0.00 | 0.00 | 80 | 1011.3 |
| 20260509235956 | 65 | 158 | 1.7 | 4.3 | 0.00 | 0.00 | 0.00 | 80 | 1011.3 |
| 20260509235854 | 65 | 158 | 1.7 | 4.3 | 0.00 | 0.00 | 0.00 | 80 | 1011.3 |
| 20260509235753 | 65 | 158 | 1.7 | 4.3 | 0.00 | 0.00 | 0.00 | 80 | 1011.3 |
| 20260509235646 | 66 | 157 | 1.7 | 4.3 | 0.00 | 0.00 | 0.00 | 79 | 1011.3 |
| 20260509235547 | 66 | 157 | 1.7 | 4.3 | 0.00 | 0.00 | 0.00 | 79 | 1011.4 |
| 20260509235443 | 66 | 157 | 1.7 | 4.3 | 0.00 | 0.00 | 0.00 | 79 | 1011.3 |
| 20260509235342 | 66 | 157 | 1.7 | 4.3 | 0.00 | 0.00 | 0.00 | 79 | 1011.3 |
| 20260509235238 | 66 | 157 | 1.7 | 4.3 | 0.00 | 0.00 | 0.00 | 79 | 1011.3 |
| 20260509235137 | 66 | 161 | 1.7 | 3.5 | 0.00 | 0.00 | 0.00 | 79 | 1011.3 |
| 20260509235037 | 66 | 162 | 1.7 | 3.5 | 0.00 | 0.00 | 0.00 | 79 | 1011.4 |
| 20260509234937 | 66 | 162 | 1.7 | 4.3 | 0.00 | 0.00 | 0.00 | 79 | 1011.3 |
| 20260509234837 | 66 | 184 | 1.7 | 6.1 | 0.00 | 0.00 | 0.00 | 79 | 1011.3 |
| 20260509234736 | 66 | 184 | 1.7 | 6.1 | 0.00 | 0.00 | 0.00 | 79 | 1011.4 |
| 20260509234633 | 66 | 178 | 1.7 | 6.1 | 0.00 | 0.00 | 0.00 | 79 | 1011.4 |
| 20260509234532 | 66 | 178 | 1.7 | 6.1 | 0.00 | 0.00 | 0.00 | 79 | 1011.4 |
| 20260509234433 | 66 | 178 | 2.6 | 7.0 | 0.00 | 0.00 | 0.00 | 78 | 1011.4 |
| 20260509234332 | 66 | 181 | 1.7 | 7.8 | 0.00 | 0.00 | 0.00 | 78 | 1011.3 |
| 20260509234231 | 66 | 182 | 1.7 | 7.8 | 0.00 | 0.00 | 0.00 | 78 | 1011.3 |
| 20260509234131 | 66 | 182 | 1.7 | 7.8 | 0.00 | 0.00 | 0.00 | 78 | 1011.4 |
| 20260509234030 | 66 | 145 | 1.7 | 7.8 | 0.00 | 0.00 | 0.00 | 78 | 1011.3 |
| 20260509233932 | 66 | 153 | 1.7 | 7.8 | 0.00 | 0.00 | 0.00 | 78 | 1011.4 |
| 20260509233832 | 66 | 153 | 0.9 | 7.8 | 0.00 | 0.00 | 0.00 | 78 | 1011.3 |
| 20260509233728 | 66 | 150 | 0.9 | 7.8 | 0.00 | 0.00 | 0.00 | 78 | 1011.4 |
| 20260509233630 | 66 | 161 | 0.9 | 7.8 | 0.00 | 0.00 | 0.00 | 78 | 1011.3 |
| 20260509233527 | 67 | 162 | 0.9 | 7.8 | 0.00 | 0.00 | 0.00 | 78 | 1011.3 |
| 20260509233427 | 67 | 163 | 0.9 | 7.8 | 0.00 | 0.00 | 0.00 | 78 | 1011.3 |
| 20260509233328 | 67 | 174 | 0.9 | 9.6 | 0.00 | 0.00 | 0.00 | 78 | 1011.3 |
| 20260509233225 | 67 | 129 | 1.7 | 9.6 | 0.00 | 0.00 | 0.00 | 78 | 1011.3 |
| 20260509233125 | 67 | 174 | 1.7 | 9.6 | 0.00 | 0.00 | 0.00 | 78 | 1011.3 |
| 20260509233024 | 67 | 154 | 1.7 | 9.6 | 0.00 | 0.00 | 0.00 | 77 | 1011.3 |
| 20260509232923 | 67 | 138 | 1.7 | 9.6 | 0.00 | 0.00 | 0.00 | 77 | 1011.3 |
| 20260509232823 | 67 | 137 | 2.6 | 9.6 | 0.00 | 0.00 | 0.00 | 77 | 1011.3 |
| 20260509232722 | 67 | 173 | 2.6 | 9.6 | 0.00 | 0.00 | 0.00 | 77 | 1011.3 |
| 20260509232623 | 67 | 128 | 2.6 | 9.6 | 0.00 | 0.00 | 0.00 | 77 | 1011.3 |
| 20260509232523 | 67 | 177 | 2.6 | 9.6 | 0.00 | 0.00 | 0.00 | 77 | 1011.4 |
| 20260509232418 | 67 | 159 | 2.6 | 9.6 | 0.00 | 0.00 | 0.00 | 77 | 1011.3 |
| 20260509232318 | 67 | 150 | 2.6 | 7.0 | 0.00 | 0.00 | 0.00 | 77 | 1011.4 |
| 20260509232119 | 67 | 138 | 2.6 | 6.1 | 0.00 | 0.00 | 0.00 | 76 | 1011.4 |
| 20260509232016 | 67 | 158 | 2.6 | 6.1 | 0.00 | 0.00 | 0.00 | 76 | 1011.3 |
| 20260509231907 | 67 | 152 | 1.7 | 6.1 | 0.00 | 0.00 | 0.00 | 76 | 1011.3 |
| 20260509231807 | 67 | 134 | 1.7 | 6.1 | 0.00 | 0.00 | 0.00 | 76 | 1011.3 |
| 20260509231706 | 67 | 169 | 1.7 | 6.1 | 0.00 | 0.00 | 0.00 | 76 | 1011.3 |
| 20260509231606 | 67 | 189 | 1.7 | 6.1 | 0.00 | 0.00 | 0.00 | 76 | 1011.3 |
| 20260509231507 | 68 | 144 | 1.7 | 5.2 | 0.00 | 0.00 | 0.00 | 76 | 1011.2 |
| 20260509231402 | 68 | 139 | 1.7 | 5.2 | 0.00 | 0.00 | 0.00 | 75 | 1011.1 |
| 20260509231300 | 68 | 165 | 1.7 | 5.2 | 0.00 | 0.00 | 0.00 | 76 | 1011.2 |
| 20260509231201 | 68 | 167 | 1.7 | 5.2 | 0.00 | 0.00 | 0.00 | 76 | 1011.1 |
| 20260509231101 | 68 | 166 | 1.7 | 5.2 | 0.00 | 0.00 | 0.00 | 76 | 1011.1 |
| 20260509231000 | 68 | 167 | 1.7 | 5.2 | 0.00 | 0.00 | 0.00 | 76 | 1011.0 |
| 20260509230855 | 68 | 162 | 0.9 | 5.2 | 0.00 | 0.00 | 0.00 | 75 | 1011.1 |
| 20260509230754 | 68 | 165 | 0.9 | 5.2 | 0.00 | 0.00 | 0.00 | 75 | 1011.1 |
| 20260509230656 | 68 | 167 | 0.9 | 5.2 | 0.00 | 0.00 | 0.00 | 75 | 1011.1 |
| 20260509230554 | 68 | 150 | 0.9 | 5.2 | 0.00 | 0.00 | 0.00 | 75 | 1011.1 |
| 20260509230455 | 68 | 156 | 0.0 | 4.3 | 0.00 | 0.00 | 0.00 | 75 | 1011.2 |
| 20260509230344 | 68 | 186 | 0.0 | 4.3 | 0.00 | 0.00 | 0.00 | 75 | 1011.0 |
| 20260509230245 | 68 | 159 | 0.0 | 1.7 | 0.00 | 0.00 | 0.00 | 75 | 1011.0 |
| 20260509230144 | 68 | 159 | 0.0 | 1.7 | 0.00 | 0.00 | 0.00 | 75 | 1011.0 |
| 20260509230045 | 68 | 159 | 0.0 | 0.9 | 0.00 | 0.00 | 0.00 | 75 | 1011.1 |
| 20260509225943 | 68 | 159 | 0.0 | 0.0 | 0.00 | 0.00 | 0.00 | 75 | 1011.0 |
| 20260509225838 | 68 | 161 | 0.0 | 0.0 | 0.00 | 0.00 | 0.00 | 75 | 1011.1 |
| 20260509225736 | 68 | 182 | 0.0 | 0.0 | 0.00 | 0.00 | 0.00 | 74 | 1011.0 |
| 20260509225637 | 68 | 182 | 0.0 | 0.0 | 0.00 | 0.00 | 0.00 | 74 | 1011.1 |
| 20260509225537 | 68 | 146 | 0.0 | 0.0 | 0.00 | 0.00 | 0.00 | 74 | 1011.1 |
| 20260509225436 | 68 | 143 | 0.0 | 0.0 | 0.00 | 0.00 | 0.00 | 74 | 1011.0 |
| 20260509225334 | 68 | 166 | 0.0 | 0.0 | 0.00 | 0.00 | 0.00 | 74 | 1011.0 |
| 20260509225235 | 68 | 149 | 0.0 | 0.0 | 0.00 | 0.00 | 0.00 | 74 | 1011.0 |
| 20260509225132 | 69 | 160 | 0.0 | 0.0 | 0.00 | 0.00 | 0.00 | 74 | 1011.0 |
| 20260509225032 | 69 | 190 | 0.0 | 0.0 | 0.00 | 0.00 | 0.00 | 74 | 1011.0 |
| 20260509224931 | 69 | 142 | 0.0 | 0.0 | 0.00 | 0.00 | 0.00 | 74 | 1011.0 |
| 20260509224824 | 69 | 157 | 0.0 | 0.0 | 0.00 | 0.00 | 0.00 | 74 | 1011.0 |
| 20260509224720 | 69 | 161 | 0.0 | 0.0 | 0.00 | 0.00 | 0.00 | 74 | 1010.9 |
| 20260509224620 | 69 | 175 | 0.0 | 0.0 | 0.00 | 0.00 | 0.00 | 74 | 1011.0 |
| 20260509224522 | 69 | 160 | 0.0 | 0.0 | 0.00 | 0.00 | 0.00 | 74 | 1011.0 |
| 20260509224421 | 69 | 173 | 0.0 | 0.0 | 0.00 | 0.00 | 0.00 | 74 | 1010.9 |
| 20260509224315 | 69 | 144 | 0.0 | 0.0 | 0.00 | 0.00 | 0.00 | 74 | 1011.0 |
| 20260509224214 | 69 | 140 | 0.0 | 0.0 | 0.00 | 0.00 | 0.00 | 74 | 1010.9 |
| 20260509224115 | 69 | 140 | 0.0 | 0.0 | 0.00 | 0.00 | 0.00 | 74 | 1010.9 |
| 20260509224016 | 69 | 166 | 0.0 | 0.0 | 0.00 | 0.00 | 0.00 | 74 | 1010.9 |
| 20260509223915 | 69 | 142 | 0.0 | 0.0 | 0.00 | 0.00 | 0.00 | 74 | 1010.9 |
| 20260509223812 | 69 | 141 | 0.0 | 0.0 | 0.00 | 0.00 | 0.00 | 74 | 1010.8 |
| 20260509223713 | 69 | 142 | 0.0 | 0.0 | 0.00 | 0.00 | 0.00 | 74 | 1010.8 |
| 20260509223612 | 69 | 141 | 0.0 | 0.0 | 0.00 | 0.00 | 0.00 | 74 | 1010.9 |
| 20260509223511 | 69 | 140 | 0.0 | 0.0 | 0.00 | 0.00 | 0.00 | 74 | 1010.8 |
| 20260509223407 | 69 | 150 | 0.0 | 0.0 | 0.00 | 0.00 | 0.00 | 73 | 1010.7 |
| 20260509223256 | 69 | 195 | 0.0 | 0.0 | 0.00 | 0.00 | 0.00 | 73 | 1010.7 |
| 20260509223157 | 69 | 122 | 0.0 | 0.0 | 0.00 | 0.00 | 0.00 | 73 | 1010.8 |
| 20260509223058 | 69 | 192 | 0.0 | 0.0 | 0.00 | 0.00 | 0.00 | 73 | 1010.7 |
| 20260509222957 | 69 | 180 | 0.0 | 0.0 | 0.00 | 0.00 | 0.00 | 73 | 1010.8 |
| 20260509222857 | 69 | 175 | 0.0 | 0.0 | 0.00 | 0.00 | 0.00 | 73 | 1010.7 |
| 20260509222752 | 69 | 146 | 0.0 | 0.0 | 0.00 | 0.00 | 0.00 | 73 | 1010.6 |
| 20260509222651 | 69 | 147 | 0.0 | 0.0 | 0.00 | 0.00 | 0.00 | 73 | 1010.6 |
| 20260509222550 | 69 | 264 | 0.0 | 0.0 | 0.00 | 0.00 | 0.00 | 73 | 1010.7 |
| 20260509222451 | 69 | 206 | 0.0 | 0.0 | 0.00 | 0.00 | 0.00 | 73 | 1010.6 |
| 20260509222350 | 69 | 171 | 0.0 | 0.0 | 0.00 | 0.00 | 0.00 | 72 | 1010.6 |
| 20260509222248 | 69 | 205 | 0.0 | 0.0 | 0.00 | 0.00 | 0.00 | 72 | 1010.6 |
| 20260509222145 | 69 | 213 | 0.0 | 0.0 | 0.00 | 0.00 | 0.00 | 73 | 1010.6 |
| 20260509222045 | 69 | 215 | 0.0 | 0.0 | 0.00 | 0.00 | 0.00 | 73 | 1010.5 |
| 20260509221945 | 69 | 176 | 0.0 | 0.0 | 0.00 | 0.00 | 0.00 | 72 | 1010.6 |
| 20260509221845 | 69 | 246 | 0.0 | 0.0 | 0.00 | 0.00 | 0.00 | 72 | 1010.6 |
| 20260509221737 | 69 | 168 | 0.0 | 0.0 | 0.00 | 0.00 | 0.00 | 72 | 1010.6 |
| 20260509221635 | 69 | 171 | 0.0 | 0.0 | 0.00 | 0.00 | 0.00 | 72 | 1010.5 |
| 20260509221536 | 69 | 158 | 0.0 | 0.0 | 0.00 | 0.00 | 0.00 | 71 | 1010.5 |
| 20260509221434 | 69 | 174 | 0.0 | 0.0 | 0.00 | 0.00 | 0.00 | 72 | 1010.4 |
| 20260509221334 | 70 | 128 | 0.0 | 0.0 | 0.00 | 0.00 | 0.00 | 71 | 1010.6 |
| 20260509221232 | 70 | 156 | 0.0 | 0.0 | 0.00 | 0.00 | 0.00 | 71 | 1010.5 |
| 20260509221132 | 70 | 148 | 0.0 | 0.0 | 0.00 | 0.00 | 0.00 | 71 | 1010.5 |
| 20260509221030 | 70 | 153 | 0.0 | 0.0 | 0.00 | 0.00 | 0.00 | 71 | 1010.5 |
| 20260509220931 | 70 | 143 | 0.0 | 0.0 | 0.00 | 0.00 | 0.00 | 71 | 1010.5 |
| 20260509220829 | 70 | 146 | 0.0 | 0.0 | 0.00 | 0.00 | 0.00 | 71 | 1010.6 |
| 20260509220726 | 70 | 173 | 0.0 | 0.0 | 0.00 | 0.00 | 0.00 | 71 | 1010.6 |
| 20260509220627 | 70 | 162 | 0.0 | 0.0 | 0.00 | 0.00 | 0.00 | 71 | 1010.6 |
| 20260509220526 | 70 | 191 | 0.0 | 0.0 | 0.00 | 0.00 | 0.00 | 71 | 1010.6 |
| 20260509220424 | 70 | 217 | 0.0 | 0.0 | 0.00 | 0.00 | 0.00 | 70 | 1010.6 |
| 20260509220323 | 70 | 217 | 0.0 | 0.0 | 0.00 | 0.00 | 0.00 | 70 | 1010.5 |
| 20260509220216 | 70 | 199 | 0.0 | 0.0 | 0.00 | 0.00 | 0.00 | 70 | 1010.6 |
| 20260509220113 | 70 | 149 | 0.0 | 0.0 | 0.00 | 0.00 | 0.00 | 71 | 1010.6 |
| 20260509220013 | 70 | 129 | 0.0 | 0.0 | 0.00 | 0.00 | 0.00 | 70 | 1010.6 |
| 20260509215913 | 70 | 158 | 0.0 | 0.0 | 0.00 | 0.00 | 0.00 | 70 | 1010.6 |
| 20260509215812 | 70 | 182 | 0.0 | 0.0 | 0.00 | 0.00 | 0.00 | 70 | 1010.6 |
| 20260509215706 | 70 | 173 | 0.0 | 0.0 | 0.00 | 0.00 | 0.00 | 70 | 1010.6 |
| 20260509215608 | 70 | 231 | 0.0 | 0.0 | 0.00 | 0.00 | 0.00 | 70 | 1010.6 |
| 20260509215507 | 70 | 144 | 0.0 | 0.0 | 0.00 | 0.00 | 0.00 | 70 | 1010.6 |
| 20260509215407 | 70 | 128 | 0.0 | 0.0 | 0.00 | 0.00 | 0.00 | 70 | 1010.6 |
| 20260509215306 | 70 | 165 | 0.0 | 0.0 | 0.00 | 0.00 | 0.00 | 70 | 1010.6 |
| 20260509215201 | 70 | 161 | 0.0 | 0.0 | 0.00 | 0.00 | 0.00 | 70 | 1010.5 |
| 20260509215100 | 70 | 167 | 0.0 | 0.0 | 0.00 | 0.00 | 0.00 | 70 | 1010.5 |
| 20260509215002 | 71 | 147 | 0.0 | 0.0 | 0.00 | 0.00 | 0.00 | 71 | 1010.5 |
| 20260509214901 | 70 | 144 | 0.0 | 0.0 | 0.00 | 0.00 | 0.00 | 70 | 1010.5 |
| 20260509214800 | 70 | 141 | 0.0 | 0.0 | 0.00 | 0.00 | 0.00 | 70 | 1010.5 |
| 20260509214652 | 71 | 202 | 0.0 | 0.0 | 0.00 | 0.00 | 0.00 | 70 | 1010.5 |
| 20260509214552 | 71 | 153 | 0.0 | 0.0 | 0.00 | 0.00 | 0.00 | 70 | 1010.5 |
| 20260509214453 | 71 | 161 | 0.0 | 0.0 | 0.00 | 0.00 | 0.00 | 70 | 1010.5 |
| 20260509214352 | 71 | 167 | 0.0 | 0.0 | 0.00 | 0.00 | 0.00 | 70 | 1010.5 |
| 20260509214251 | 71 | 139 | 0.0 | 0.0 | 0.00 | 0.00 | 0.00 | 71 | 1010.5 |
| 20260509214144 | 70 | 139 | 0.0 | 0.0 | 0.00 | 0.00 | 0.00 | 70 | 1010.5 |
| 20260509214044 | 70 | 134 | 0.0 | 0.0 | 0.00 | 0.00 | 0.00 | 70 | 1010.6 |
| 20260509213945 | 70 | 207 | 0.0 | 0.0 | 0.00 | 0.00 | 0.00 | 70 | 1010.5 |
| 20260509213843 | 70 | 193 | 0.0 | 0.0 | 0.00 | 0.00 | 0.00 | 70 | 1010.5 |
| 20260509213744 | 70 | 158 | 0.0 | 0.0 | 0.00 | 0.00 | 0.00 | 70 | 1010.6 |
| 20260509213639 | 70 | 136 | 0.0 | 0.0 | 0.00 | 0.00 | 0.00 | 69 | 1010.6 |
| 20260509213540 | 70 | 153 | 0.0 | 0.0 | 0.00 | 0.00 | 0.00 | 70 | 1010.6 |
| 20260509213440 | 70 | 169 | 0.0 | 0.0 | 0.00 | 0.00 | 0.00 | 70 | 1010.5 |
| 20260509213341 | 70 | 162 | 0.0 | 0.0 | 0.00 | 0.00 | 0.00 | 69 | 1010.5 |
| 20260509213239 | 70 | 192 | 0.0 | 0.0 | 0.00 | 0.00 | 0.00 | 70 | 1010.5 |
| 20260509213128 | 70 | 142 | 0.0 | 0.0 | 0.00 | 0.00 | 0.00 | 70 | 1010.6 |
| 20260509213028 | 70 | 175 | 0.0 | 0.0 | 0.00 | 0.00 | 0.00 | 69 | 1010.6 |
| 20260509212928 | 70 | 155 | 0.0 | 0.0 | 0.00 | 0.00 | 0.00 | 68 | 1010.6 |
| 20260509212830 | 71 | 146 | 0.0 | 0.0 | 0.00 | 0.00 | 0.00 | 69 | 1010.6 |
| 20260509212728 | 70 | 184 | 0.0 | 0.0 | 0.00 | 0.00 | 0.00 | 69 | 1010.5 |
| 20260509212624 | 70 | 148 | 0.0 | 0.0 | 0.00 | 0.00 | 0.00 | 69 | 1010.5 |
| 20260509212522 | 70 | 148 | 0.0 | 0.0 | 0.00 | 0.00 | 0.00 | 68 | 1010.4 |
| 20260509212423 | 70 | 150 | 0.0 | 0.0 | 0.00 | 0.00 | 0.00 | 69 | 1010.2 |
| 20260509212321 | 70 | 207 | 0.0 | 0.0 | 0.00 | 0.00 | 0.00 | 69 | 1010.2 |
| 20260509212223 | 70 | 178 | 0.0 | 0.0 | 0.00 | 0.00 | 0.00 | 69 | 1010.4 |
| 20260509212121 | 71 | 160 | 0.0 | 0.0 | 0.00 | 0.00 | 0.00 | 68 | 1010.2 |
| 20260509212022 | 71 | 145 | 0.0 | 0.0 | 0.00 | 0.00 | 0.00 | 67 | 1010.4 |
| 20260509211918 | 71 | 159 | 0.0 | 0.0 | 0.00 | 0.00 | 0.00 | 68 | 1010.2 |
| 20260509211819 | 71 | 150 | 0.0 | 0.0 | 0.00 | 0.00 | 0.00 | 67 | 1010.2 |
| 20260509211717 | 71 | 140 | 0.0 | 0.0 | 0.00 | 0.00 | 0.00 | 67 | 1010.5 |
| 20260509211606 | 71 | 157 | 0.0 | 0.0 | 0.00 | 0.00 | 0.00 | 66 | 1010.4 |
| 20260509211507 | 71 | 138 | 0.0 | 0.0 | 0.00 | 0.00 | 0.00 | 66 | 1010.5 |
| 20260509211407 | 71 | 132 | 0.0 | 0.0 | 0.00 | 0.00 | 0.00 | 66 | 1010.5 |
| 20260509211307 | 71 | 179 | 0.0 | 0.0 | 0.00 | 0.00 | 0.00 | 65 | 1010.4 |
| 20260509211206 | 72 | 202 | 0.0 | 0.0 | 0.00 | 0.00 | 0.00 | 66 | 1010.2 |
| 20260509211102 | 72 | 180 | 0.0 | 0.0 | 0.00 | 0.00 | 0.00 | 66 | 1010.1 |
| 20260509211003 | 72 | 141 | 0.0 | 0.0 | 0.00 | 0.00 | 0.00 | 66 | 1010.1 |
| 20260509210902 | 72 | 155 | 0.0 | 0.0 | 0.00 | 0.00 | 0.00 | 65 | 1010.2 |
| 20260509210802 | 72 | 155 | 0.0 | 0.0 | 0.00 | 0.00 | 0.00 | 65 | 1010.2 |
| 20260509210701 | 72 | 154 | 0.0 | 0.0 | 0.00 | 0.00 | 0.00 | 65 | 1010.2 |
| 20260509210601 | 72 | 153 | 0.0 | 0.0 | 0.00 | 0.00 | 0.00 | 65 | 1010.2 |
| 20260509210459 | 72 | 147 | 0.0 | 0.0 | 0.00 | 0.00 | 0.00 | 65 | 1010.2 |
| 20260509210356 | 72 | 153 | 0.0 | 0.0 | 0.00 | 0.00 | 0.00 | 64 | 1010.2 |
| 20260509210257 | 72 | 194 | 0.0 | 0.0 | 0.00 | 0.00 | 0.00 | 63 | 1010.4 |
| 20260509210154 | 72 | 177 | 0.0 | 0.0 | 0.00 | 0.00 | 0.00 | 64 | 1010.4 |
| 20260509210047 | 72 | 190 | 0.0 | 0.0 | 0.00 | 0.00 | 0.00 | 64 | 1010.4 |
| 20260509205944 | 72 | 140 | 0.0 | 0.0 | 0.00 | 0.00 | 0.00 | 65 | 1010.4 |
| 20260509205844 | 72 | 135 | 0.0 | 0.0 | 0.00 | 0.00 | 0.00 | 65 | 1010.2 |
| 20260509205744 | 72 | 161 | 0.0 | 0.0 | 0.00 | 0.00 | 0.00 | 66 | 1010.2 |
| 20260509205644 | 72 | 138 | 0.0 | 0.0 | 0.00 | 0.00 | 0.00 | 64 | 1010.2 |
| 20260509205545 | 72 | 166 | 0.0 | 0.0 | 0.00 | 0.00 | 0.00 | 66 | 1010.2 |
| 20260509205442 | 72 | 153 | 0.0 | 0.0 | 0.00 | 0.00 | 0.00 | 65 | 1010.2 |
| 20260509205344 | 72 | 162 | 0.0 | 0.0 | 0.00 | 0.00 | 0.00 | 65 | 1010.2 |
| 20260509205241 | 72 | 140 | 0.0 | 0.0 | 0.00 | 0.00 | 0.00 | 65 | 1010.2 |
| 20260509205138 | 73 | 187 | 0.0 | 0.0 | 0.00 | 0.00 | 0.00 | 64 | 1010.2 |
| 20260509205035 | 73 | 166 | 0.0 | 0.0 | 0.00 | 0.00 | 0.00 | 64 | 1010.4 |
| 20260509204836 | 73 | 180 | 0.0 | 0.0 | 0.00 | 0.00 | 0.00 | 64 | 1010.1 |
| 20260509204736 | 73 | 176 | 0.0 | 0.0 | 0.00 | 0.00 | 0.00 | 64 | 1010.1 |
| 20260509204632 | 73 | 97 | 0.0 | 0.0 | 0.00 | 0.00 | 0.00 | 64 | 1010.2 |
| 20260509204525 | 73 | 149 | 0.0 | 0.0 | 0.00 | 0.00 | 0.00 | 64 | 1010.1 |
| 20260509204423 | 73 | 154 | 0.0 | 0.0 | 0.00 | 0.00 | 0.00 | 64 | 1010.1 |
| 20260509204323 | 73 | 162 | 0.0 | 0.0 | 0.00 | 0.00 | 0.00 | 64 | 1010.1 |
| 20260509204223 | 73 | 133 | 0.0 | 0.0 | 0.00 | 0.00 | 0.00 | 64 | 1010.1 |
| 20260509204123 | 73 | 179 | 0.0 | 0.0 | 0.00 | 0.00 | 0.00 | 63 | 1010.0 |
| 20260509204022 | 73 | 182 | 0.0 | 0.0 | 0.00 | 0.00 | 0.00 | 65 | 1010.0 |
| 20260509203921 | 73 | 93 | 0.0 | 0.0 | 0.00 | 0.00 | 0.00 | 64 | 1010.0 |
| 20260509203821 | 73 | 178 | 0.0 | 0.0 | 0.00 | 0.00 | 0.00 | 64 | 1010.0 |
| 20260509203718 | 73 | 186 | 0.0 | 0.0 | 0.00 | 0.00 | 0.00 | 63 | 1010.1 |
| 20260509203617 | 73 | 146 | 0.0 | 0.0 | 0.00 | 0.00 | 0.00 | 64 | 1010.1 |
| 20260509203511 | 73 | 51 | 0.0 | 0.0 | 0.00 | 0.00 | 0.00 | 64 | 1010.1 |
| 20260509203410 | 73 | 119 | 0.0 | 0.0 | 0.00 | 0.00 | 0.00 | 64 | 1010.0 |
| 20260509203311 | 73 | 161 | 0.0 | 0.0 | 0.00 | 0.00 | 0.00 | 63 | 1009.9 |
| 20260509203211 | 73 | 170 | 0.0 | 0.0 | 0.00 | 0.00 | 0.00 | 63 | 1009.9 |
| 20260509203111 | 73 | 140 | 0.0 | 0.0 | 0.00 | 0.00 | 0.00 | 65 | 1010.0 |
| 20260509203000 | 73 | 150 | 0.0 | 0.0 | 0.00 | 0.00 | 0.00 | 64 | 1009.9 |
| 20260509202901 | 72 | 121 | 0.9 | 5.2 | 0.00 | 0.00 | 0.00 | 65 | 1010.0 |
| 20260509202801 | 72 | 144 | 0.9 | 5.2 | 0.00 | 0.00 | 0.00 | 64 | 1010.0 |
| 20260509202700 | 72 | 9 | 1.7 | 7.8 | 0.00 | 0.00 | 0.00 | 66 | 1010.0 |
| 20260509202600 | 72 | 35 | 1.7 | 7.8 | 0.00 | 0.00 | 0.00 | 65 | 1010.1 |
| 20260509202458 | 72 | 355 | 2.6 | 8.7 | 0.00 | 0.00 | 0.00 | 67 | 1010.1 |
| 20260509202358 | 72 | 21 | 2.6 | 8.7 | 0.00 | 0.00 | 0.00 | 65 | 1010.1 |
| 20260509202259 | 72 | 124 | 2.6 | 8.7 | 0.00 | 0.00 | 0.00 | 64 | 1010.1 |
| 20260509202157 | 72 | 160 | 2.6 | 8.7 | 0.00 | 0.00 | 0.00 | 66 | 1010.0 |
| 20260509202055 | 72 | 150 | 2.6 | 8.7 | 0.00 | 0.00 | 0.00 | 66 | 1010.1 |
| 20260509201950 | 72 | 145 | 2.6 | 8.7 | 0.00 | 0.00 | 0.00 | 65 | 1010.0 |
| 20260509201851 | 72 | 155 | 2.6 | 8.7 | 0.00 | 0.00 | 0.00 | 66 | 1010.1 |
| 20260509201750 | 72 | 138 | 1.7 | 8.7 | 0.00 | 0.00 | 0.00 | 65 | 1010.1 |
| 20260509201650 | 72 | 148 | 1.7 | 8.7 | 0.00 | 0.00 | 0.00 | 65 | 1010.2 |
| 20260509201549 | 72 | 144 | 0.9 | 8.7 | 0.00 | 0.00 | 0.00 | 66 | 1010.2 |
| 20260509201439 | 72 | 150 | 0.9 | 6.1 | 0.00 | 0.00 | 0.00 | 65 | 1010.2 |
| 20260509201340 | 72 | 192 | 0.0 | 6.1 | 0.00 | 0.00 | 0.00 | 67 | 1010.2 |
| 20260509201241 | 72 | 132 | 0.0 | 2.6 | 0.00 | 0.00 | 0.00 | 66 | 1010.2 |
| 20260509201141 | 72 | 145 | 0.0 | 0.0 | 0.00 | 0.00 | 0.00 | 66 | 1010.2 |
| 20260509201039 | 72 | 127 | 0.0 | 0.0 | 0.00 | 0.00 | 0.00 | 65 | 1010.4 |
| 20260509200935 | 72 | 132 | 0.0 | 0.0 | 0.00 | 0.00 | 0.00 | 66 | 1010.4 |
| 20260509200832 | 72 | 167 | 0.0 | 0.0 | 0.00 | 0.00 | 0.00 | 67 | 1010.4 |
| 20260509200732 | 72 | 163 | 0.0 | 0.0 | 0.00 | 0.00 | 0.00 | 64 | 1010.4 |
| 20260509200632 | 72 | 131 | 0.0 | 0.0 | 0.00 | 0.00 | 0.00 | 64 | 1010.4 |
| 20260509200533 | 72 | 105 | 0.0 | 0.0 | 0.00 | 0.00 | 0.00 | 65 | 1010.4 |
| 20260509200428 | 72 | 160 | 0.0 | 0.0 | 0.00 | 0.00 | 0.00 | 64 | 1010.4 |
| 20260509200329 | 72 | 140 | 0.0 | 0.0 | 0.00 | 0.00 | 0.00 | 65 | 1010.4 |
| 20260509200227 | 72 | 114 | 0.0 | 0.0 | 0.00 | 0.00 | 0.00 | 65 | 1010.2 |
| 20260509200129 | 72 | 175 | 0.0 | 0.0 | 0.00 | 0.00 | 0.00 | 65 | 1010.4 |
| 20260509200026 | 72 | 138 | 0.0 | 0.0 | 0.00 | 0.00 | 0.00 | 64 | 1010.4 |
| 20260509195917 | 72 | 200 | 0.0 | 0.0 | 0.00 | 0.00 | 0.00 | 64 | 1010.4 |
| 20260509195815 | 72 | 180 | 0.0 | 0.0 | 0.00 | 0.00 | 0.00 | 65 | 1010.4 |
| 20260509195716 | 72 | 144 | 0.0 | 0.0 | 0.00 | 0.00 | 0.00 | 66 | 1010.4 |
| 20260509195618 | 72 | 133 | 0.0 | 0.0 | 0.00 | 0.00 | 0.00 | 65 | 1010.5 |
| 20260509195516 | 72 | 115 | 0.0 | 0.0 | 0.00 | 0.00 | 0.00 | 66 | 1010.4 |
| 20260509195428 | 72 | 98 | 0.0 | 0.0 | 0.00 | 0.00 | 0.00 | 65 | 1010.4 |
| 20260509195310 | 72 | 198 | 0.0 | 0.0 | 0.00 | 0.00 | 0.00 | 64 | 1010.2 |
| 20260509195211 | 72 | 193 | 0.0 | 0.0 | 0.00 | 0.00 | 0.00 | 66 | 1010.4 |
| 20260509195111 | 72 | 184 | 0.0 | 0.0 | 0.00 | 0.00 | 0.00 | 65 | 1010.2 |
| 20260509195010 | 72 | 72 | 0.0 | 0.0 | 0.00 | 0.00 | 0.00 | 65 | 1010.2 |
| 20260509194905 | 72 | 142 | 0.0 | 0.0 | 0.00 | 0.00 | 0.00 | 65 | 1010.2 |
| 20260509194804 | 72 | 179 | 0.0 | 0.0 | 0.00 | 0.00 | 0.00 | 65 | 1010.4 |
| 20260509194704 | 72 | 162 | 0.0 | 0.0 | 0.00 | 0.00 | 0.00 | 65 | 1010.5 |
| 20260509194604 | 72 | 155 | 0.0 | 0.0 | 0.00 | 0.00 | 0.00 | 65 | 1010.5 |
| 20260509194504 | 72 | 180 | 0.0 | 0.0 | 0.00 | 0.00 | 0.00 | 64 | 1010.5 |
| 20260509194354 | 72 | 159 | 0.0 | 0.0 | 0.00 | 0.00 | 0.00 | 64 | 1010.5 |
| 20260509194254 | 72 | 146 | 0.0 | 0.0 | 0.00 | 0.00 | 0.00 | 65 | 1010.5 |
| 20260509194155 | 72 | 138 | 0.0 | 0.0 | 0.00 | 0.00 | 0.00 | 66 | 1010.4 |
| 20260509194055 | 72 | 119 | 0.0 | 0.0 | 0.00 | 0.00 | 0.00 | 66 | 1010.5 |
| 20260509193955 | 72 | 134 | 0.0 | 0.0 | 0.00 | 0.00 | 0.00 | 65 | 1010.5 |
| 20260509193849 | 72 | 137 | 0.0 | 0.0 | 0.00 | 0.00 | 0.00 | 64 | 1010.5 |
| 20260509193750 | 72 | 111 | 0.0 | 0.0 | 0.00 | 0.00 | 0.00 | 64 | 1010.5 |
| 20260509193651 | 72 | 146 | 0.0 | 0.0 | 0.00 | 0.00 | 0.00 | 64 | 1010.5 |
| 20260509193550 | 72 | 167 | 0.0 | 0.0 | 0.00 | 0.00 | 0.00 | 65 | 1010.5 |
| 20260509193448 | 72 | 142 | 0.0 | 0.0 | 0.00 | 0.00 | 0.00 | 65 | 1010.5 |
| 20260509193345 | 72 | 188 | 0.0 | 0.0 | 0.00 | 0.00 | 0.00 | 67 | 1010.5 |
| 20260509193247 | 72 | 142 | 0.0 | 0.0 | 0.00 | 0.00 | 0.00 | 66 | 1010.5 |
| 20260509193145 | 72 | 144 | 0.0 | 0.0 | 0.00 | 0.00 | 0.00 | 65 | 1010.5 |
| 20260509193044 | 72 | 170 | 0.0 | 0.0 | 0.00 | 0.00 | 0.00 | 67 | 1010.5 |
| 20260509192942 | 72 | 96 | 0.0 | 0.0 | 0.00 | 0.00 | 0.00 | 66 | 1010.5 |
| 20260509192836 | 72 | 148 | 0.0 | 0.0 | 0.00 | 0.00 | 0.00 | 66 | 1010.5 |
| 20260509192737 | 72 | 180 | 0.0 | 0.0 | 0.00 | 0.00 | 0.00 | 65 | 1010.5 |
| 20260509192636 | 72 | 163 | 0.0 | 0.0 | 0.00 | 0.00 | 0.00 | 64 | 1010.5 |
| 20260509192534 | 72 | 174 | 0.0 | 0.0 | 0.00 | 0.00 | 0.00 | 64 | 1010.5 |
| 20260509192433 | 72 | 123 | 0.0 | 0.0 | 0.00 | 0.00 | 0.00 | 63 | 1010.2 |
| 20260509192327 | 72 | 141 | 0.0 | 0.0 | 0.00 | 0.00 | 0.00 | 63 | 1010.5 |
| 20260509192226 | 72 | 126 | 0.0 | 0.0 | 0.00 | 0.00 | 0.00 | 64 | 1010.5 |
| 20260509192126 | 72 | 155 | 0.0 | 0.0 | 0.00 | 0.00 | 0.00 | 65 | 1010.5 |
| 20260509192026 | 72 | 130 | 0.0 | 0.0 | 0.00 | 0.00 | 0.00 | 66 | 1010.6 |
| 20260509191927 | 72 | 134 | 0.0 | 0.0 | 0.00 | 0.00 | 0.00 | 66 | 1010.6 |
| 20260509191824 | 72 | 129 | 0.0 | 0.0 | 0.00 | 0.00 | 0.00 | 66 | 1010.5 |
| 20260509191725 | 72 | 103 | 0.0 | 0.0 | 0.00 | 0.00 | 0.00 | 66 | 1010.6 |
| 20260509191621 | 72 | 147 | 0.0 | 0.0 | 0.00 | 0.00 | 0.00 | 65 | 1010.6 |
| 20260509191523 | 72 | 117 | 0.0 | 0.0 | 0.00 | 0.00 | 0.00 | 64 | 1010.5 |
| 20260509191420 | 72 | 150 | 0.0 | 0.0 | 0.00 | 0.00 | 0.00 | 64 | 1010.5 |
| 20260509191311 | 72 | 153 | 0.0 | 0.0 | 0.00 | 0.00 | 0.00 | 65 | 1010.7 |
| 20260509191212 | 72 | 128 | 0.0 | 0.0 | 0.00 | 0.00 | 0.00 | 64 | 1010.6 |
| 20260509191111 | 72 | 132 | 0.0 | 0.0 | 0.00 | 0.00 | 0.00 | 65 | 1010.6 |
| 20260509191010 | 72 | 106 | 0.0 | 0.0 | 0.00 | 0.00 | 0.00 | 65 | 1010.7 |
| 20260509190910 | 72 | 143 | 0.0 | 0.0 | 0.00 | 0.00 | 0.00 | 66 | 1010.7 |
| 20260509190803 | 72 | 184 | 0.0 | 0.0 | 0.00 | 0.00 | 0.00 | 65 | 1010.7 |
| 20260509190705 | 72 | 212 | 0.0 | 0.0 | 0.00 | 0.00 | 0.00 | 66 | 1010.6 |
| 20260509190605 | 72 | 146 | 0.0 | 0.0 | 0.00 | 0.00 | 0.00 | 66 | 1010.7 |
| 20260509190505 | 72 | 153 | 0.0 | 0.0 | 0.00 | 0.00 | 0.00 | 65 | 1010.7 |
| 20260509190405 | 72 | 163 | 0.0 | 0.0 | 0.00 | 0.00 | 0.00 | 67 | 1010.7 |
| 20260509190302 | 71 | 155 | 0.0 | 0.0 | 0.00 | 0.00 | 0.00 | 66 | 1010.7 |
| 20260509190201 | 71 | 153 | 0.0 | 0.0 | 0.00 | 0.00 | 0.00 | 66 | 1010.6 |
| 20260509190000 | 71 | 161 | 0.0 | 0.0 | 0.00 | 0.00 | 0.00 | 66 | 1010.6 |
| 20260509185858 | 71 | 205 | 0.0 | 0.0 | 0.00 | 0.00 | 0.00 | 66 | 1010.7 |
| 20260509185750 | 71 | 146 | 0.0 | 0.0 | 0.00 | 0.00 | 0.00 | 65 | 1010.7 |
| 20260509185649 | 71 | 119 | 0.0 | 0.0 | 0.00 | 0.00 | 0.00 | 65 | 1010.7 |
| 20260509185550 | 71 | 223 | 0.0 | 0.0 | 0.00 | 0.00 | 0.00 | 66 | 1010.7 |
| 20260509185451 | 71 | 161 | 0.0 | 0.0 | 0.00 | 0.00 | 0.00 | 66 | 1010.7 |
| 20260509185349 | 71 | 165 | 0.0 | 0.0 | 0.00 | 0.00 | 0.00 | 65 | 1010.6 |
| 20260509185242 | 71 | 129 | 0.0 | 0.0 | 0.00 | 0.00 | 0.00 | 65 | 1010.7 |
| 20260509185142 | 71 | 142 | 0.0 | 0.0 | 0.00 | 0.00 | 0.00 | 65 | 1010.7 |
| 20260509185043 | 71 | 67 | 0.0 | 0.0 | 0.00 | 0.00 | 0.00 | 66 | 1010.7 |
| 20260509184942 | 71 | 159 | 0.0 | 0.0 | 0.00 | 0.00 | 0.00 | 66 | 1010.6 |
| 20260509184843 | 71 | 123 | 0.0 | 0.0 | 0.00 | 0.00 | 0.00 | 65 | 1010.7 |
| 20260509184737 | 71 | 172 | 0.0 | 0.0 | 0.00 | 0.00 | 0.00 | 66 | 1010.7 |
| 20260509184636 | 71 | 183 | 0.0 | 0.0 | 0.00 | 0.00 | 0.00 | 67 | 1010.7 |
| 20260509184537 | 71 | 192 | 0.0 | 0.0 | 0.00 | 0.00 | 0.00 | 65 | 1010.6 |
| 20260509184437 | 71 | 245 | 0.0 | 0.0 | 0.00 | 0.00 | 0.00 | 66 | 1010.7 |
| 20260509184337 | 71 | 205 | 0.0 | 0.0 | 0.00 | 0.00 | 0.00 | 66 | 1010.6 |
| 20260509184231 | 71 | 159 | 0.0 | 0.0 | 0.00 | 0.00 | 0.00 | 66 | 1010.6 |
| 20260509184131 | 71 | 209 | 0.0 | 0.0 | 0.00 | 0.00 | 0.00 | 65 | 1010.6 |
| 20260509184031 | 71 | 116 | 0.0 | 0.0 | 0.00 | 0.00 | 0.00 | 65 | 1010.6 |
| 20260509183929 | 71 | 166 | 0.0 | 0.0 | 0.00 | 0.00 | 0.00 | 65 | 1010.6 |
| 20260509183826 | 71 | 134 | 0.0 | 0.0 | 0.00 | 0.00 | 0.00 | 65 | 1010.6 |
| 20260509183725 | 71 | 129 | 0.0 | 0.0 | 0.00 | 0.00 | 0.00 | 65 | 1010.7 |
| 20260509183624 | 71 | 133 | 0.0 | 0.0 | 0.00 | 0.00 | 0.00 | 64 | 1010.6 |
| 20260509183524 | 71 | 154 | 0.0 | 0.0 | 0.00 | 0.00 | 0.00 | 66 | 1010.6 |
| 20260509183423 | 71 | 183 | 0.0 | 0.0 | 0.00 | 0.00 | 0.00 | 65 | 1010.6 |
| 20260509183321 | 71 | 145 | 0.0 | 0.0 | 0.00 | 0.00 | 0.00 | 66 | 1010.6 |
| 20260509183215 | 71 | 157 | 0.0 | 0.0 | 0.00 | 0.00 | 0.00 | 64 | 1010.5 |
| 20260509183114 | 71 | 278 | 0.0 | 0.0 | 0.00 | 0.00 | 0.00 | 63 | 1010.6 |
| 20260509183015 | 71 | 181 | 0.0 | 0.0 | 0.00 | 0.00 | 0.00 | 65 | 1010.6 |
| 20260509182914 | 71 | 130 | 0.0 | 0.0 | 0.00 | 0.00 | 0.00 | 66 | 1010.5 |
| 20260509182815 | 71 | 160 | 0.0 | 0.0 | 0.00 | 0.00 | 0.00 | 67 | 1010.6 |
| 20260509182703 | 71 | 92 | 0.0 | 0.0 | 0.00 | 0.00 | 0.00 | 66 | 1010.6 |
| 20260509182605 | 71 | 150 | 0.0 | 0.0 | 0.00 | 0.00 | 0.00 | 67 | 1010.6 |
| 20260509182505 | 71 | 143 | 0.0 | 0.0 | 0.00 | 0.00 | 0.00 | 65 | 1010.7 |
| 20260509182404 | 71 | 148 | 0.0 | 0.0 | 0.00 | 0.00 | 0.00 | 66 | 1010.7 |
| 20260509182306 | 71 | 169 | 0.0 | 0.0 | 0.00 | 0.00 | 0.00 | 65 | 1010.7 |
| 20260509182201 | 71 | 140 | 0.0 | 0.0 | 0.00 | 0.00 | 0.00 | 65 | 1010.6 |
| 20260509182102 | 71 | 153 | 0.0 | 0.0 | 0.00 | 0.00 | 0.00 | 64 | 1010.6 |
| 20260509182002 | 71 | 159 | 0.0 | 0.0 | 0.00 | 0.00 | 0.00 | 64 | 1010.7 |
| 20260509181901 | 71 | 138 | 0.0 | 0.0 | 0.00 | 0.00 | 0.00 | 63 | 1010.6 |
| 20260509181759 | 71 | 188 | 0.0 | 0.0 | 0.00 | 0.00 | 0.00 | 65 | 1010.7 |
| 20260509181655 | 70 | 306 | 0.0 | 0.0 | 0.00 | 0.00 | 0.00 | 64 | 1010.8 |
| 20260509181556 | 70 | 290 | 0.0 | 0.0 | 0.00 | 0.00 | 0.00 | 67 | 1010.7 |
| 20260509181454 | 70 | 86 | 0.0 | 0.0 | 0.00 | 0.00 | 0.00 | 65 | 1010.7 |
| 20260509181355 | 70 | 133 | 0.0 | 0.0 | 0.00 | 0.00 | 0.00 | 65 | 1010.8 |
| 20260509181253 | 70 | 140 | 0.0 | 0.0 | 0.00 | 0.00 | 0.00 | 66 | 1010.7 |
| 20260509181142 | 70 | 159 | 0.0 | 0.0 | 0.00 | 0.00 | 0.00 | 66 | 1010.8 |
| 20260509181042 | 70 | 176 | 0.0 | 0.0 | 0.00 | 0.00 | 0.00 | 64 | 1010.8 |
| 20260509180942 | 70 | 121 | 0.0 | 0.0 | 0.00 | 0.00 | 0.00 | 65 | 1010.8 |
| 20260509180841 | 70 | 134 | 0.0 | 0.0 | 0.00 | 0.00 | 0.00 | 65 | 1010.9 |
| 20260509180743 | 70 | 155 | 0.0 | 0.0 | 0.00 | 0.00 | 0.00 | 67 | 1010.9 |
| 20260509180638 | 70 | 158 | 0.0 | 0.0 | 0.00 | 0.00 | 0.00 | 67 | 1011.0 |
| 20260509180537 | 70 | 110 | 0.0 | 0.0 | 0.00 | 0.00 | 0.00 | 66 | 1011.0 |
| 20260509180438 | 70 | 124 | 0.0 | 0.0 | 0.00 | 0.00 | 0.00 | 66 | 1011.0 |
| 20260509180338 | 70 | 136 | 0.0 | 0.0 | 0.00 | 0.00 | 0.00 | 67 | 1011.0 |
| 20260509180236 | 70 | 177 | 0.0 | 0.0 | 0.00 | 0.00 | 0.00 | 66 | 1011.1 |
| 20260509180133 | 70 | 178 | 0.0 | 0.0 | 0.00 | 0.00 | 0.00 | 68 | 1011.0 |
| 20260509180030 | 70 | 351 | 0.0 | 0.0 | 0.00 | 0.00 | 0.00 | 67 | 1011.0 |
| 20260509175930 | 70 | 128 | 0.0 | 0.0 | 0.00 | 0.00 | 0.00 | 67 | 1011.1 |
| 20260509175831 | 70 | 215 | 0.0 | 0.0 | 0.00 | 0.00 | 0.00 | 67 | 1011.0 |
| 20260509175731 | 70 | 250 | 0.0 | 0.0 | 0.00 | 0.00 | 0.00 | 68 | 1011.2 |
| 20260509175622 | 69 | 171 | 0.0 | 0.0 | 0.00 | 0.00 | 0.00 | 66 | 1011.2 |
| 20260509175522 | 69 | 155 | 0.0 | 0.0 | 0.00 | 0.00 | 0.00 | 67 | 1011.1 |
| 20260509175423 | 69 | 138 | 0.0 | 0.0 | 0.00 | 0.00 | 0.00 | 67 | 1011.2 |
| 20260509175321 | 69 | 159 | 0.0 | 0.0 | 0.00 | 0.00 | 0.00 | 68 | 1011.2 |
| 20260509175220 | 69 | 139 | 0.0 | 0.0 | 0.00 | 0.00 | 0.00 | 66 | 1011.2 |
| 20260509175120 | 69 | 136 | 0.0 | 0.0 | 0.00 | 0.00 | 0.00 | 66 | 1011.3 |
| 20260509175018 | 69 | 180 | 0.0 | 0.0 | 0.00 | 0.00 | 0.00 | 65 | 1011.2 |
| 20260509174918 | 69 | 173 | 0.0 | 0.0 | 0.00 | 0.00 | 0.00 | 65 | 1011.3 |
| 20260509174817 | 69 | 167 | 0.0 | 0.0 | 0.00 | 0.00 | 0.00 | 64 | 1011.2 |
| 20260509174714 | 69 | 171 | 0.0 | 0.0 | 0.00 | 0.00 | 0.00 | 64 | 1011.2 |
| 20260509174608 | 69 | 171 | 0.0 | 0.0 | 0.00 | 0.00 | 0.00 | 65 | 1011.3 |
| 20260509174509 | 69 | 171 | 0.0 | 0.0 | 0.00 | 0.00 | 0.00 | 64 | 1011.3 |
| 20260509174409 | 69 | 171 | 0.0 | 0.0 | 0.00 | 0.00 | 0.00 | 67 | 1011.4 |
| 20260509174309 | 69 | 153 | 0.0 | 0.0 | 0.00 | 0.00 | 0.00 | 65 | 1011.4 |
| 20260509174209 | 69 | 329 | 0.0 | 0.0 | 0.00 | 0.00 | 0.00 | 65 | 1011.3 |
| 20260509174101 | 69 | 305 | 0.0 | 0.0 | 0.00 | 0.00 | 0.00 | 66 | 1011.3 |
| 20260509174000 | 69 | 206 | 0.0 | 0.0 | 0.00 | 0.00 | 0.00 | 66 | 1011.3 |
| 20260509173901 | 69 | 210 | 0.0 | 0.0 | 0.00 | 0.00 | 0.00 | 66 | 1011.4 |
| 20260509173800 | 69 | 213 | 0.0 | 0.0 | 0.00 | 0.00 | 0.00 | 65 | 1011.3 |
| 20260509173658 | 69 | 216 | 0.0 | 0.0 | 0.00 | 0.00 | 0.00 | 67 | 1011.4 |
| 20260509173554 | 69 | 276 | 0.0 | 0.0 | 0.00 | 0.00 | 0.00 | 66 | 1011.3 |
| 20260509173452 | 69 | 276 | 0.0 | 0.0 | 0.00 | 0.00 | 0.00 | 65 | 1011.3 |
| 20260509173352 | 69 | 312 | 0.0 | 0.0 | 0.00 | 0.00 | 0.00 | 65 | 1011.3 |
| 20260509173255 | 70 | 326 | 0.0 | 0.0 | 0.00 | 0.00 | 0.00 | 65 | 1011.4 |
| 20260509173153 | 70 | 280 | 0.0 | 0.0 | 0.00 | 0.00 | 0.00 | 66 | 1011.4 |
| 20260509173048 | 70 | 130 | 0.0 | 0.0 | 0.00 | 0.00 | 0.00 | 66 | 1011.3 |
| 20260509172947 | 69 | 244 | 0.0 | 0.0 | 0.00 | 0.00 | 0.00 | 67 | 1011.4 |
| 20260509172847 | 69 | 183 | 0.0 | 0.0 | 0.00 | 0.00 | 0.00 | 67 | 1011.3 |
| 20260509172746 | 69 | 178 | 0.0 | 0.0 | 0.00 | 0.00 | 0.00 | 68 | 1011.4 |
| 20260509172647 | 69 | 50 | 0.0 | 0.0 | 0.00 | 0.00 | 0.00 | 69 | 1011.2 |
| 20260509172543 | 69 | 113 | 0.0 | 0.0 | 0.00 | 0.00 | 0.00 | 68 | 1011.2 |
| 20260509172440 | 69 | 114 | 0.0 | 0.0 | 0.00 | 0.00 | 0.00 | 68 | 1011.3 |
| 20260509172340 | 69 | 114 | 0.0 | 0.0 | 0.00 | 0.00 | 0.00 | 67 | 1011.2 |
| 20260509172239 | 69 | 311 | 0.0 | 0.0 | 0.00 | 0.00 | 0.00 | 67 | 1011.2 |
| 20260509172136 | 69 | 310 | 0.0 | 0.0 | 0.00 | 0.00 | 0.00 | 67 | 1011.2 |
| 20260509172034 | 69 | 317 | 0.0 | 0.0 | 0.00 | 0.00 | 0.00 | 67 | 1011.2 |
| 20260509171934 | 68 | 271 | 0.0 | 0.0 | 0.00 | 0.00 | 0.00 | 70 | 1011.3 |
| 20260509171835 | 68 | 178 | 0.0 | 0.0 | 0.00 | 0.00 | 0.00 | 68 | 1011.3 |
| 20260509171731 | 68 | 150 | 0.0 | 0.0 | 0.00 | 0.00 | 0.00 | 67 | 1011.3 |
| 20260509171632 | 68 | 139 | 0.0 | 0.0 | 0.00 | 0.00 | 0.00 | 70 | 1011.4 |
| 20260509171532 | 68 | 152 | 0.0 | 0.0 | 0.00 | 0.00 | 0.00 | 70 | 1011.3 |
| 20260509171433 | 68 | 148 | 0.0 | 0.0 | 0.00 | 0.00 | 0.00 | 70 | 1011.3 |
| 20260509171331 | 68 | 150 | 0.0 | 0.0 | 0.00 | 0.00 | 0.00 | 69 | 1011.3 |
| 20260509171229 | 68 | 149 | 0.0 | 0.0 | 0.00 | 0.00 | 0.00 | 70 | 1011.4 |
| 20260509171131 | 68 | 147 | 0.0 | 0.0 | 0.00 | 0.00 | 0.00 | 71 | 1011.3 |
| 20260509171028 | 68 | 86 | 0.0 | 0.0 | 0.00 | 0.00 | 0.00 | 72 | 1011.4 |
| 20260509170925 | 67 | 128 | 0.0 | 0.0 | 0.00 | 0.00 | 0.00 | 72 | 1011.4 |
| 20260509170826 | 67 | 168 | 0.0 | 0.0 | 0.00 | 0.00 | 0.00 | 71 | 1011.4 |
| 20260509170723 | 67 | 169 | 0.0 | 0.0 | 0.00 | 0.00 | 0.00 | 71 | 1011.5 |
| 20260509170624 | 67 | 164 | 0.0 | 0.0 | 0.00 | 0.00 | 0.00 | 68 | 1011.5 |
| 20260509170523 | 67 | 139 | 0.0 | 0.0 | 0.00 | 0.00 | 0.00 | 68 | 1011.6 |
| 20260509170419 | 68 | 152 | 0.0 | 0.0 | 0.00 | 0.00 | 0.00 | 68 | 1011.5 |
| 20260509170319 | 68 | 77 | 0.0 | 0.0 | 0.00 | 0.00 | 0.00 | 68 | 1011.4 |
| 20260509170221 | 68 | 134 | 0.0 | 0.0 | 0.00 | 0.00 | 0.00 | 68 | 1011.4 |
| 20260509170121 | 68 | 209 | 0.0 | 0.0 | 0.00 | 0.00 | 0.00 | 68 | 1011.4 |
| 20260509170020 | 68 | 159 | 0.0 | 0.0 | 0.00 | 0.00 | 0.00 | 68 | 1011.4 |
| 20260509165919 | 68 | 167 | 0.0 | 0.0 | 0.00 | 0.00 | 0.00 | 68 | 1011.4 |
| 20260509165817 | 68 | 133 | 0.0 | 0.0 | 0.00 | 0.00 | 0.00 | 69 | 1011.4 |
| 20260509165719 | 68 | 172 | 0.0 | 0.0 | 0.00 | 0.00 | 0.00 | 70 | 1011.4 |
| 20260509165618 | 68 | 158 | 0.0 | 0.0 | 0.00 | 0.00 | 0.00 | 69 | 1011.3 |
| 20260509165518 | 68 | 188 | 0.0 | 0.0 | 0.00 | 0.00 | 0.00 | 69 | 1011.3 |
| 20260509165419 | 68 | 135 | 0.0 | 0.0 | 0.00 | 0.00 | 0.00 | 69 | 1011.5 |
| 20260509165319 | 68 | 142 | 0.0 | 0.0 | 0.00 | 0.00 | 0.00 | 70 | 1011.5 |
| 20260509165218 | 68 | 53 | 0.0 | 0.0 | 0.00 | 0.00 | 0.00 | 68 | 1011.4 |
| 20260509165119 | 68 | 77 | 0.0 | 0.0 | 0.00 | 0.00 | 0.00 | 70 | 1011.5 |
| 20260509165016 | 68 | 77 | 0.0 | 0.0 | 0.00 | 0.00 | 0.00 | 69 | 1011.5 |
| 20260509164916 | 68 | 175 | 0.0 | 0.0 | 0.00 | 0.00 | 0.00 | 70 | 1011.5 |
| 20260509164815 | 68 | 175 | 0.0 | 0.0 | 0.00 | 0.00 | 0.00 | 68 | 1011.6 |
| 20260509164715 | 67 | 175 | 0.0 | 0.0 | 0.00 | 0.00 | 0.00 | 68 | 1011.6 |
| 20260509164616 | 68 | 195 | 0.0 | 0.0 | 0.00 | 0.00 | 0.00 | 69 | 1011.6 |
| 20260509164514 | 68 | 140 | 0.0 | 0.0 | 0.00 | 0.00 | 0.00 | 69 | 1011.6 |
| 20260509164413 | 67 | 150 | 0.0 | 0.0 | 0.00 | 0.00 | 0.00 | 70 | 1011.6 |
| 20260509164313 | 67 | 139 | 0.0 | 0.0 | 0.00 | 0.00 | 0.00 | 69 | 1011.7 |
| 20260509164211 | 68 | 124 | 0.0 | 0.0 | 0.00 | 0.00 | 0.00 | 68 | 1011.7 |
| 20260509164112 | 68 | 157 | 0.0 | 0.0 | 0.00 | 0.00 | 0.00 | 69 | 1011.6 |
| 20260509164012 | 68 | 164 | 0.0 | 0.0 | 0.00 | 0.00 | 0.00 | 69 | 1011.7 |
| 20260509163913 | 68 | 170 | 0.0 | 0.0 | 0.00 | 0.00 | 0.00 | 69 | 1011.7 |
| 20260509163812 | 68 | 178 | 0.0 | 0.0 | 0.00 | 0.00 | 0.00 | 68 | 1011.7 |
| 20260509163712 | 68 | 171 | 0.0 | 0.0 | 0.00 | 0.00 | 0.00 | 68 | 1011.8 |
| 20260509163607 | 68 | 193 | 0.0 | 0.0 | 0.00 | 0.00 | 0.00 | 67 | 1011.8 |
| 20260509163505 | 68 | 128 | 0.0 | 0.0 | 0.00 | 0.00 | 0.00 | 68 | 1011.8 |
| 20260509163407 | 68 | 134 | 0.0 | 0.0 | 0.00 | 0.00 | 0.00 | 69 | 1011.7 |
| 20260509163305 | 68 | 173 | 0.0 | 0.0 | 0.00 | 0.00 | 0.00 | 68 | 1011.8 |
| 20260509163206 | 68 | 184 | 0.0 | 0.0 | 0.00 | 0.00 | 0.00 | 68 | 1011.8 |
| 20260509163101 | 68 | 182 | 0.0 | 0.0 | 0.00 | 0.00 | 0.00 | 68 | 1012.0 |
| 20260509163002 | 68 | 226 | 0.0 | 0.0 | 0.00 | 0.00 | 0.00 | 70 | 1011.8 |
| 20260509162902 | 67 | 225 | 0.0 | 0.0 | 0.00 | 0.00 | 0.00 | 71 | 1012.0 |
| 20260509162803 | 67 | 167 | 0.0 | 0.0 | 0.00 | 0.00 | 0.00 | 69 | 1012.0 |
| 20260509162701 | 67 | 138 | 0.0 | 0.0 | 0.00 | 0.00 | 0.00 | 68 | 1012.0 |
| 20260509162557 | 67 | 273 | 0.0 | 0.0 | 0.00 | 0.00 | 0.00 | 68 | 1012.0 |
| 20260509162459 | 67 | 221 | 0.0 | 0.0 | 0.00 | 0.00 | 0.00 | 68 | 1012.0 |
| 20260509162358 | 67 | 214 | 0.0 | 0.0 | 0.00 | 0.00 | 0.00 | 69 | 1012.1 |
| 20260509162257 | 67 | 283 | 0.0 | 0.0 | 0.00 | 0.00 | 0.00 | 69 | 1012.0 |
| 20260509162157 | 67 | 119 | 0.0 | 0.0 | 0.00 | 0.00 | 0.00 | 70 | 1012.0 |
| 20260509162059 | 67 | 119 | 0.0 | 0.0 | 0.00 | 0.00 | 0.00 | 72 | 1012.0 |
| 20260509161956 | 67 | 344 | 0.0 | 0.0 | 0.00 | 0.00 | 0.00 | 71 | 1012.0 |
| 20260509161853 | 67 | 315 | 0.0 | 0.0 | 0.00 | 0.00 | 0.00 | 71 | 1012.1 |
| 20260509161754 | 67 | 154 | 0.0 | 0.0 | 0.00 | 0.00 | 0.00 | 70 | 1012.1 |
| 20260509161654 | 67 | 113 | 0.0 | 0.9 | 0.00 | 0.00 | 0.00 | 70 | 1012.0 |
| 20260509161551 | 67 | 205 | 0.0 | 4.3 | 0.00 | 0.00 | 0.00 | 71 | 1012.1 |
| 20260509161451 | 66 | 119 | 0.0 | 4.3 | 0.00 | 0.00 | 0.00 | 70 | 1012.0 |
| 20260509161352 | 66 | 187 | 0.9 | 4.3 | 0.00 | 0.00 | 0.00 | 69 | 1012.0 |
| 20260509161253 | 66 | 167 | 0.9 | 5.2 | 0.00 | 0.00 | 0.00 | 70 | 1012.0 |
| 20260509161152 | 66 | 192 | 0.9 | 6.1 | 0.00 | 0.00 | 0.00 | 70 | 1012.0 |
| 20260509161052 | 66 | 145 | 1.7 | 6.1 | 0.00 | 0.00 | 0.00 | 71 | 1012.0 |
| 20260509160951 | 66 | 144 | 1.7 | 7.8 | 0.00 | 0.00 | 0.00 | 70 | 1012.1 |
| 20260509160851 | 66 | 124 | 1.7 | 7.8 | 0.00 | 0.00 | 0.00 | 72 | 1012.0 |
| 20260509160751 | 66 | 66 | 2.6 | 7.8 | 0.00 | 0.00 | 0.00 | 70 | 1012.1 |
| 20260509160653 | 66 | 163 | 2.6 | 7.8 | 0.00 | 0.00 | 0.00 | 70 | 1012.2 |
| 20260509160550 | 66 | 105 | 2.6 | 7.8 | 0.00 | 0.00 | 0.00 | 71 | 1012.2 |
| 20260509160451 | 66 | 175 | 2.6 | 7.8 | 0.00 | 0.00 | 0.00 | 70 | 1012.2 |
| 20260509160350 | 66 | 284 | 2.6 | 7.8 | 0.00 | 0.00 | 0.00 | 71 | 1012.3 |
| 20260509160250 | 66 | 168 | 2.6 | 7.8 | 0.00 | 0.00 | 0.00 | 72 | 1012.2 |
| 20260509160151 | 66 | 182 | 2.6 | 7.8 | 0.00 | 0.00 | 0.00 | 71 | 1012.3 |
| 20260509160049 | 66 | 178 | 2.6 | 7.8 | 0.00 | 0.00 | 0.00 | 73 | 1012.3 |
| 20260509155948 | 66 | 348 | 2.6 | 6.1 | 0.00 | 0.00 | 0.00 | 73 | 1012.3 |
| 20260509155847 | 66 | 327 | 2.6 | 6.1 | 0.00 | 0.00 | 0.00 | 72 | 1012.3 |
| 20260509155748 | 66 | 178 | 2.6 | 6.1 | 0.00 | 0.00 | 0.00 | 73 | 1012.3 |
| 20260509155648 | 66 | 236 | 2.6 | 7.8 | 0.00 | 0.00 | 0.00 | 75 | 1012.3 |
| 20260509155549 | 65 | 105 | 2.6 | 7.8 | 0.00 | 0.00 | 0.00 | 74 | 1012.2 |
| 20260509155447 | 65 | 161 | 2.6 | 7.8 | 0.00 | 0.00 | 0.00 | 74 | 1012.3 |
| 20260509155348 | 65 | 245 | 2.6 | 7.8 | 0.00 | 0.00 | 0.00 | 73 | 1012.3 |
| 20260509155247 | 65 | 187 | 2.6 | 7.8 | 0.00 | 0.00 | 0.00 | 74 | 1012.3 |
| 20260509155148 | 65 | 148 | 2.6 | 7.8 | 0.00 | 0.00 | 0.00 | 74 | 1012.3 |
| 20260509155049 | 65 | 145 | 2.6 | 7.8 | 0.00 | 0.00 | 0.00 | 74 | 1012.3 |
| 20260509155001 | 65 | 153 | 2.6 | 7.8 | 0.00 | 0.00 | 0.00 | 74 | 1012.4 |
| 20260509154849 | 65 | 134 | 2.6 | 7.8 | 0.00 | 0.00 | 0.00 | 74 | 1012.3 |
| 20260509154747 | 65 | 177 | 2.6 | 7.8 | 0.00 | 0.00 | 0.00 | 73 | 1012.3 |
| 20260509154646 | 65 | 130 | 2.6 | 7.0 | 0.00 | 0.00 | 0.00 | 73 | 1012.4 |
| 20260509154544 | 65 | 146 | 2.6 | 7.0 | 0.00 | 0.00 | 0.00 | 73 | 1012.3 |
| 20260509154445 | 65 | 24 | 1.7 | 6.1 | 0.00 | 0.00 | 0.00 | 74 | 1012.3 |
| 20260509154343 | 65 | 141 | 1.7 | 6.1 | 0.00 | 0.00 | 0.00 | 74 | 1012.2 |
| 20260509154243 | 65 | 153 | 1.7 | 6.1 | 0.00 | 0.00 | 0.00 | 74 | 1012.1 |
| 20260509154143 | 65 | 154 | 1.7 | 6.1 | 0.00 | 0.00 | 0.00 | 74 | 1012.0 |
| 20260509154044 | 65 | 128 | 1.7 | 6.1 | 0.00 | 0.00 | 0.00 | 73 | 1012.1 |
| 20260509153935 | 65 | 190 | 1.7 | 6.1 | 0.00 | 0.00 | 0.00 | 74 | 1012.1 |
| 20260509153836 | 65 | 132 | 1.7 | 6.1 | 0.00 | 0.00 | 0.00 | 75 | 1012.0 |
| 20260509153736 | 65 | 137 | 1.7 | 6.1 | 0.00 | 0.00 | 0.00 | 75 | 1012.1 |
| 20260509153635 | 65 | 134 | 1.7 | 6.1 | 0.00 | 0.00 | 0.00 | 75 | 1012.0 |
| 20260509153535 | 65 | 126 | 1.7 | 6.1 | 0.00 | 0.00 | 0.00 | 74 | 1012.1 |
| 20260509153436 | 65 | 135 | 1.7 | 6.1 | 0.00 | 0.00 | 0.00 | 75 | 1012.0 |
| 20260509153336 | 65 | 152 | 1.7 | 6.1 | 0.00 | 0.00 | 0.00 | 75 | 1012.0 |
| 20260509153235 | 64 | 217 | 1.7 | 8.7 | 0.00 | 0.00 | 0.00 | 75 | 1012.1 |
| 20260509153136 | 64 | 155 | 1.7 | 8.7 | 0.00 | 0.00 | 0.00 | 75 | 1012.1 |
| 20260509153037 | 64 | 0 | 1.7 | 8.7 | 0.00 | 0.00 | 0.00 | 76 | 1012.0 |
| 20260509152936 | 64 | 17 | 2.6 | 8.7 | 0.00 | 0.00 | 0.00 | 75 | 1012.0 |
| 20260509152835 | 64 | 5 | 2.6 | 8.7 | 0.00 | 0.00 | 0.00 | 76 | 1012.0 |
| 20260509152736 | 64 | 0 | 2.6 | 8.7 | 0.00 | 0.00 | 0.00 | 76 | 1012.2 |
| 20260509152637 | 64 | 109 | 2.6 | 8.7 | 0.00 | 0.00 | 0.00 | 76 | 1012.1 |
| 20260509152536 | 64 | 188 | 2.6 | 8.7 | 0.00 | 0.00 | 0.00 | 74 | 1012.1 |
| 20260509152435 | 64 | 304 | 2.6 | 8.7 | 0.00 | 0.00 | 0.00 | 74 | 1012.2 |
| 20260509152335 | 64 | 168 | 2.6 | 8.7 | 0.00 | 0.00 | 0.00 | 75 | 1012.2 |
| 20260509152235 | 64 | 178 | 2.6 | 6.1 | 0.00 | 0.00 | 0.00 | 75 | 1012.2 |
| 20260509152135 | 65 | 148 | 2.6 | 6.1 | 0.00 | 0.00 | 0.00 | 75 | 1012.1 |
| 20260509152036 | 65 | 108 | 2.6 | 6.1 | 0.00 | 0.00 | 0.00 | 74 | 1012.2 |
| 20260509151936 | 65 | 5 | 2.6 | 6.1 | 0.00 | 0.00 | 0.00 | 75 | 1012.2 |
| 20260509151837 | 65 | 139 | 2.6 | 6.1 | 0.00 | 0.00 | 0.00 | 75 | 1012.1 |
| 20260509151735 | 65 | 194 | 2.6 | 6.1 | 0.00 | 0.00 | 0.00 | 77 | 1012.2 |